[{"header": {"dx": 0.06612293990616946, "dy": 0.0552356325346848, "nx": 98, "ny": 59, "la1": 35.046912555036876, "la2": 31.78801023549047, "lo1": -121.43107172385933, "lo2": -114.95102361305473, "refTime": "2026041800", "parameterCategory": 1, "parameterNumber": 2}, "data": [10.65, 10.65, 11.17, 11.45, 11.73, 11.06, 11.38, 11.69, 12.0, 11.64, 11.9, 11.72, 12.39, 12.58, 12.0, 11.62, 11.62, 11.18, 11.62, 12.52, 12.96, 12.96, 11.62, 11.18, 11.18, 11.62, 12.0, 12.14, 10.04, 5.4, 1.77, 2.13, 2.06, 1.84, 2.02, 1.93, 3.49, 4.83, 5.86, 6.42, 6.3, 7.15, 8.22, 8.85, 12.52, 17.78, 15.8, -0.0, -0.0, -0.0, 6.4, 10.43, 10.75, 7.0, 7.0, 13.99, 15.65, 15.65, 15.65, 15.65, 15.65, -0.0, -0.0, 15.2, 15.2, 13.99, 11.38, 7.2, 0.0, 0.0, 0.0, 0.0, 0.0, 0.0, 0.0, 0.0, 0.0, 2.35, 4.66, 4.66, 6.4, 7.44, 8.3, 8.85, 9.16, 9.86, 10.8, 10.21, 10.6, 10.7, 12.42, 13.7, 14.47, 15.11, 14.75, 12.79, 6.0, -12.96, 10.65, 11.17, 11.17, 11.45, 11.04, 11.36, 11.38, 11.69, 11.36, 11.64, 11.53, 12.51, 11.99, 11.44, 12.46, 11.95, 10.73, 12.07, 12.07, 11.62, 13.41, 12.96, 12.96, 12.96, 10.73, 11.18, 11.62, 11.98, 11.09, 8.85, 4.52, 1.96, 2.06, 1.62, 1.32, 1.75, 1.32, 2.83, 4.2, 4.6, 6.94, 6.9, 7.78, 11.87, 18.65, 16.44, -0.0, -0.0, -0.0, 6.6, 10.43, 10.75, -0.0, -0.0, 13.59, 15.65, 15.65, 15.2, 15.65, 15.65, 15.65, 15.2, 15.2, 15.2, 15.2, 13.99, 7.2, 7.2, 0.0, 0.0, -5.23, -5.09, 0.0, 0.0, 0.0, 0.0, 0.0, 2.35, 4.66, 4.66, 6.4, 7.44, 8.3, 8.85, 9.16, 9.86, 10.8, 10.21, 10.6, 10.7, 12.42, 13.7, 14.47, 15.11, 14.75, 12.79, 6.0, -12.96, 10.65, 11.17, 11.0, 10.73, 11.32, 11.66, 11.7, 11.38, 11.36, 11.03, 10.77, 9.76, 11.75, 11.6, 11.03, 11.35, 11.55, 11.55, 12.07, 12.96, 11.62, 12.52, 12.52, 13.41, 13.86, 10.73, 10.73, 10.65, 10.84, 10.09, 8.18, 5.99, 3.93, 2.71, 1.4, 2.28, 1.47, 1.47, 2.7, 4.58, 5.6, 7.32, 10.73, 19.51, 15.8, -0.0, -0.0, -0.0, 6.6, 10.75, 13.59, 10.75, 15.2, 15.2, 14.75, 15.2, 15.2, 13.99, 13.99, 15.65, 15.65, 15.2, 15.2, 10.75, 13.59, 11.06, 7.0, 0.0, 0.0, 0.0, -7.2, -5.09, 0.0, 0.0, 0.0, 0.0, 2.5, 2.5, 3.93, 4.66, 5.63, 5.28, 6.43, 7.02, 7.56, 8.82, 9.77, 10.21, 10.21, 11.62, 14.53, 15.84, 15.78, 15.2, 14.75, 13.32, 11.12, 5.6, 10.65, 11.17, 11.0, 11.32, 11.32, 11.66, 11.36, 11.7, 11.06, 11.03, 9.5, 9.21, 10.86, 10.61, 11.3, 11.03, 11.35, 11.78, 11.55, 12.0, 11.18, 11.18, 11.18, 11.18, 12.07, 12.96, 10.28, 9.76, 9.21, 9.09, 7.85, 6.88, 6.16, 3.07, 3.04, 0.0, 0.0, 0.0, 1.55, 3.36, 4.54, 7.14, 13.91, 17.43, -0.0, -0.0, -0.0, -0.0, 10.43, 14.75, 14.75, 15.2, 14.75, 14.75, 13.19, 10.43, 14.42, 13.99, 11.06, 11.06, 0.0, 0.0, 0.0, 6.6, 10.43, 4.81, 0.0, 0.0, 0.0, 0.0, 0.0, 0.0, 0.0, 0.0, 3.47, 2.72, 2.43, 2.5, 4.18, 3.81, 4.71, 5.28, 6.43, 5.77, 6.5, 7.56, 9.16, 9.3, 9.3, 13.99, 15.99, 15.52, 14.84, 14.66, 13.41, 13.31, 12.46, 10.41, 10.65, 10.43, 11.0, 11.32, 11.32, 11.96, 11.66, 11.36, 11.06, 10.75, 9.87, 8.66, 10.12, 10.55, 11.3, 11.3, 11.03, 11.78, 11.35, 11.71, 12.79, 12.52, 11.62, 11.62, 10.73, 12.07, 12.52, 11.84, 10.38, 7.9, 6.98, 5.92, 5.2, 4.93, 3.47, 0.0, 0.0, 0.0, 0.0, 0.0, 0.0, 0.0, 0.0, 13.86, 13.86, 13.86, 14.3, 14.3, 14.75, 15.2, 14.75, 14.3, 12.79, 13.19, 10.43, 10.43, 10.75, 11.06, 11.06, 0.0, 0.0, 0.0, 0.0, 4.66, 4.66, 0.0, 0.0, 0.0, 0.0, 0.0, 0.0, 0.0, 0.0, 0.0, 3.07, 4.81, 5.15, 4.52, 1.96, 3.25, 4.55, 4.55, 5.4, 5.0, 5.0, 6.16, 7.85, 8.22, 11.77, 14.11, 14.51, 13.27, 13.19, 13.01, 12.96, 13.41, 12.83, 11.62, 10.65, 10.43, 11.0, 10.73, 11.32, 11.32, 11.66, 11.36, 11.38, 11.06, 9.62, 8.94, 10.12, 10.55, 11.5, 11.3, 11.45, 11.71, 11.3, 11.3, 11.18, 11.98, 13.41, 13.41, 12.52, 12.07, 12.07, 11.84, 12.58, 9.66, 5.72, 5.45, 5.45, 6.24, 3.82, -6.2, -9.48, -8.31, -5.64, -6.4, -5.6, -10.12, -13.86, -14.3, -14.3, 14.75, 14.75, 14.3, 14.3, 12.79, 12.39, 9.8, 9.8, 10.12, 10.43, 10.43, 10.43, 6.6, 0.0, 0.0, 0.0, 0.0, 0.0, 4.81, 0.0, 0.0, 0.0, 0.0, 0.0, 0.0, 0.0, 0.0, 0.0, 0.0, 3.01, 6.14, 6.9, 4.1, 2.13, 1.83, 2.93, 4.08, 5.2, 5.2, 5.2, 5.64, 7.69, 9.42, 12.36, 12.64, 12.22, 12.73, 13.58, 12.79, 12.96, 13.28, 12.83, 12.27, 10.65, 10.43, 11.0, 10.73, 11.32, 11.32, 11.04, 11.73, 11.13, 10.52, 9.62, 7.95, 9.31, 10.55, 11.99, 10.4, 11.45, 11.72, 11.72, 11.45, 11.78, 13.41, 13.86, 12.86, 12.35, 11.62, 11.62, 12.07, 12.52, 10.73, 8.94, 5.21, 5.46, 5.63, 7.9, 12.96, -12.52, -12.72, -8.22, -9.75, -12.52, -0.0, -0.0, -0.0, -0.0, -0.0, 16.09, 10.75, 12.39, 12.39, 6.4, 6.2, 7.93, 8.18, 7.93, 9.8, 6.4, 10.12, 0.0, 0.0, -9.48, 0.0, 0.0, 0.0, 0.0, 0.0, 0.0, 0.0, 0.0, 3.51, 0.0, 0.0, 0.0, 0.0, 2.4, 2.79, 4.81, 6.0, 4.24, 3.25, 2.93, 4.55, 6.2, 5.81, 6.17, 7.6, 10.66, 11.16, 11.53, 11.64, 9.92, 12.33, 14.53, 13.41, 13.23, 12.96, 12.52, 12.58, 10.39, 10.18, 10.18, 10.73, 10.73, 11.32, 11.04, 11.43, 11.7, 10.57, 8.94, 7.13, 9.16, 10.3, 12.39, 10.24, 10.94, 12.25, 12.3, 12.42, 12.52, 12.42, 12.83, 12.39, 12.39, 10.8, 10.8, 11.2, 10.4, 11.18, 10.96, 9.3, 7.9, 10.41, 11.02, 7.9, 6.2, -11.18, -12.52, -0.0, -0.0, 2.37, 4.24, 6.4, 9.22, 10.05, 12.52, 16.09, 10.43, 6.4, 5.6, 4.24, 7.69, 7.69, 9.8, 6.2, 6.2, 0.0, 0.0, 0.0, 0.0, 0.0, 0.0, 0.0, 0.0, 0.0, 0.0, 0.0, 2.89, 3.07, 3.51, 3.01, 2.65, 0.0, 0.0, 2.09, 2.02, 4.24, 5.11, 3.93, 3.39, 5.99, 7.16, 7.6, 8.47, 10.12, 12.62, 11.8, 11.93, 9.61, 9.35, 11.38, 13.41, 12.87, 13.23, 12.52, 12.07, 12.3, 10.39, 10.39, 10.18, 10.73, 10.73, 10.73, 11.16, 11.48, 11.7, 10.3, 8.16, 5.73, 7.0, 9.48, 10.91, 10.55, 10.91, 12.33, 12.96, 11.62, 10.41, 10.41, 9.17, 8.31, 9.48, 8.85, 6.95, 7.59, 10.8, 10.73, 11.62, 11.45, 6.94, 7.24, 7.9, 8.37, 8.58, 5.95, 2.82, 6.71, 6.94, 8.01, 8.01, 8.59, 10.99, 11.35, 13.1, 15.77, 16.09, 10.75, 6.6, 4.1, 4.24, 6.2, 6.2, 0.0, 0.0, 0.0, 0.0, 0.0, 0.0, 0.0, 0.0, 0.0, 0.0, 0.0, 0.0, 3.16, 2.89, 6.6, 3.16, 2.72, 0.0, 0.0, 0.0, 0.0, 1.96, 3.56, 5.46, 3.69, 4.01, 4.66, 7.58, 8.85, 9.66, 10.19, 11.48, 11.7, 12.87, 12.89, 11.26, 12.79, 12.71, 12.72, 13.28, 12.52, 12.07, 11.71, 9.67, 10.39, 10.9, 10.18, 10.73, 11.45, 11.16, 11.48, 11.38, 10.3, 7.88, 6.8, 7.13, 7.96, 10.86, 11.64, 11.88, 13.86, 12.39, 9.17, 8.85, 6.94, 7.19, 7.44, 7.44, 8.53, 6.95, 8.22, 11.99, 11.84, 12.14, 10.12, 5.15, 7.24, 9.3, 10.79, 9.96, 6.87, 7.26, 8.85, 8.53, 9.3, 9.42, 9.17, 9.67, 11.12, 11.99, 13.02, 15.18, 15.18, 4.66, 4.66, 4.52, 4.38, 0.0, 0.0, 0.0, 0.0, 0.0, 0.0, 0.0, 0.0, 0.0, 0.0, 0.0, 4.23, 4.34, 3.16, 2.72, 6.4, 3.58, 3.07, 0.0, 0.0, 0.0, 0.0, 1.9, 3.44, 3.14, 3.58, 4.12, 3.59, 6.72, 9.39, 9.02, 9.48, 10.43, 11.9, 12.79, 12.18, 12.71, 12.52, 12.42, 12.86, 12.86, 12.42, 12.83, 11.87, 9.67, 10.13, 10.39, 10.9, 10.9, 11.45, 11.26, 11.22, 11.7, 10.3, 7.88, 7.66, 8.43, 9.57, 12.52, 12.79, 14.55, 13.57, 10.43, 13.99, 15.18, 13.99, 13.19, 10.73, 9.17, 7.59, 7.27, 6.95, 8.55, 11.2, 11.21, 7.56, 6.95, 6.95, 8.8, 11.46, 11.03, 9.67, 9.17, 10.12, 10.37, 10.12, 10.25, 10.48, 10.68, 10.16, 10.8, 11.2, 12.3, 13.41, 10.43, 3.9, 0.0, 0.0, 0.0, 0.0, -6.14, -6.2, -3.53, -3.25, -4.23, 0.0, 0.0, 0.0, 5.09, 4.34, 4.66, 4.34, 3.69, 5.8, 3.36, 0.0, 0.0, 0.0, 0.0, 0.0, 1.64, 3.32, 3.93, 4.18, 2.0, 1.93, 3.49, 9.0, 10.47, 11.1, 12.65, 13.03, 13.44, 13.01, 12.47, 12.52, 12.45, 12.44, 13.33, 14.22, 13.77, 13.01, 9.67, 9.67, 10.39, 10.9, 10.9, 11.55, 11.26, 11.22, 11.7, 10.59, 8.93, 7.88, 8.68, 10.52, 12.29, 13.43, 12.88, 12.52, 13.41, 13.86, 14.3, 14.55, 14.11, 15.34, 11.99, 11.2, 10.04, 6.01, 9.6, 10.41, 10.38, 9.32, 8.73, 8.37, 9.63, 10.47, 10.08, 10.2, 9.81, 10.18, 10.81, 10.43, 10.58, 11.09, 9.6, 8.72, 10.04, 9.77, 12.04, 13.86, 12.79, 7.4, 0.0, 0.0, 0.0, 0.0, -11.16, -11.27, -7.24, -7.69, -8.0, -12.96, 0.0, 0.0, 5.09, 10.66, 5.42, 4.47, 3.95, 3.33, 2.89, 0.0, 0.0, 0.0, 0.0, 0.0, 1.91, 2.43, 4.3, 4.3, 2.28, 2.0, 4.12, 8.0, 11.27, 13.59, 14.51, 13.03, 13.43, 13.02, 12.35, 11.58, 11.62, 11.62, 12.45, 12.88, 14.66, 14.22, 9.24, 9.67, 10.13, 10.39, 10.39, 11.55, 11.26, 11.52, 11.7, 10.3, 8.93, 8.68, 8.68, 10.3, 12.71, 14.29, 14.84, 14.69, 13.86, 13.86, 14.3, 14.75, 15.2, 14.75, 14.19, 13.32, 12.72, 11.12, 10.04, 8.8, 10.6, 9.7, 9.7, 10.0, 10.46, 10.18, 10.08, 10.17, 9.81, 10.58, 10.58, 10.92, 10.5, 9.33, 9.55, 8.58, 7.26, 8.53, 9.17, 11.99, 12.27, 13.01, 6.4, 15.2, -0.0, 12.96, 20.12, -16.12, -12.87, -11.71, -11.38, -0.0, -0.0, 14.39, 18.33, 20.12, 18.6, 11.2, 4.82, 0.0, 0.0, 0.0, 0.0, 0.0, 0.0, 0.0, 0.0, 2.65, 2.65, 2.72, 2.28, 2.34, 3.49, 4.01, 7.6, 12.22, 13.91, 14.3, 14.39, 13.44, 13.37, 11.44, 11.13, 11.62, 12.52, 13.41, 12.96, 13.86, 9.24, 9.67, 9.92, 10.39, 11.05, 11.05, 11.26, 11.52, 11.48, 10.59, 9.66, 8.68, 8.68, 9.66, 11.7, 13.95, 15.59, 15.96, 15.78, 15.55, 15.2, 15.2, 15.2, 15.2, 15.65, 15.2, 15.05, 14.47, 12.39, 9.17, 8.93, 9.6, 10.38, 9.45, 9.63, 10.18, 9.55, 9.2, 9.55, 10.28, 10.56, 10.12, 10.62, 9.75, 8.43, 7.27, 6.01, 7.9, 8.22, 8.85, 8.85, 10.04, 8.53, 2.93, 5.6, 6.94, 13.99, 19.22, 0.0, -13.15, -0.0, 3.07, 7.4, 12.01, 11.7, 13.23, 16.19, 18.78, 17.85, 10.2, 0.0, 0.0, 0.0, 0.0, 0.0, 0.0, 0.0, 3.42, 2.79, 2.79, 2.79, 4.54, 3.79, 3.3, 6.35, 8.77, 11.64, 11.93, 13.12, 13.76, 12.79, 10.79, 11.03, 12.22, 13.34, 13.41, 12.96, 12.96, 9.24, 9.24, 9.92, 9.92, 11.05, 11.32, 11.55, 11.26, 11.48, 11.13, 10.19, 9.2, 9.47, 10.19, 11.7, 13.49, 14.71, 15.87, 16.7, 16.88, 16.44, 15.97, 15.53, 15.53, 15.53, 15.53, 14.99, 14.31, 14.3, 13.86, -0.0, 7.27, 10.0, 9.55, 9.75, 9.2, 8.93, 8.34, 10.27, 9.64, 10.23, 10.62, 9.7, 8.43, 6.95, 5.9, 5.06, 5.29, 6.44, 7.9, 8.22, 7.9, 6.44, 5.63, 5.9, 8.58, 10.79, 13.86, 18.33, 12.33, 4.55, 5.8, 8.66, 10.12, 10.43, 10.75, 13.23, 15.19, 15.61, 19.52, 12.34, 4.21, 0.0, 0.0, -2.63, -3.24, 0.0, 0.0, 0.0, 0.0, 2.87, 5.37, 4.3, 4.71, 5.8, 6.8, 8.83, 9.35, 10.47, 12.56, 13.82, 11.37, 10.24, 11.2, 13.01, 12.86, 12.96, 12.96, 9.24, 9.24, 9.92, 10.57, 10.57, 11.32, 11.05, 11.55, 11.48, 11.13, 10.19, 9.47, 10.05, 10.33, 12.01, 12.7, 14.28, 15.59, 17.13, 17.1, 17.33, 16.88, 16.41, 15.61, 15.18, 14.65, 13.59, 12.16, 4.81, 0.0, 14.3, 7.19, 8.82, 9.96, 9.55, 7.64, 8.72, 9.2, 10.32, 10.14, 9.32, 8.63, 8.82, 6.95, 6.95, 4.83, 5.06, 6.42, 7.27, 6.17, 7.9, 8.22, 8.22, 7.59, 7.51, 9.13, 10.08, 11.62, 14.6, 13.58, 9.08, 8.93, 9.67, 10.35, 10.35, 11.12, 10.79, 12.16, 14.94, 19.67, 17.17, 0.0, -17.81, -18.78, -10.75, -6.81, -3.77, 0.0, 0.0, 0.0, 0.0, 3.01, 5.37, 4.05, 4.75, 5.54, 6.65, 6.43, 6.43, 8.05, 11.06, 9.17, 10.55, 11.64, 11.92, 11.71, 12.42, 12.42, 8.84, 9.24, 9.48, 10.57, 10.57, 11.32, 11.32, 11.55, 11.78, 11.43, 10.19, 10.05, 10.15, 10.15, 12.01, 12.78, 14.13, 15.24, 16.19, 16.7, 17.1, 16.58, 16.58, 16.15, 15.27, 14.71, 13.1, 8.93, 8.28, 7.2, 15.65, 11.8, 10.12, 10.8, 7.67, 7.81, 8.18, 9.2, 9.55, 9.13, 8.8, 6.32, 7.27, 5.72, 6.14, 6.14, 6.42, 7.27, 8.03, 8.03, 7.27, 8.38, 8.73, 8.38, 9.2, 9.2, 9.75, 10.18, 11.09, 11.26, 10.19, 9.7, 9.86, 9.6, 10.32, 9.97, 10.79, 10.4, 13.59, 17.43, 18.23, -12.96, -14.3, -9.4, -12.64, -10.41, -7.14, -3.86, 0.0, 0.0, 2.94, 2.87, 4.67, 3.69, 3.93, 4.58, 7.73, 7.19, 6.65, 8.87, 9.44, 8.59, 8.01, 9.96, 11.99, 10.8, 11.5, 11.5, 8.84, 9.24, 9.48, 10.13, 10.57, 11.32, 11.32, 11.55, 11.78, 11.43, 11.06, 10.05, 10.15, 10.89, 12.01, 13.23, 13.95, 15.24, 15.77, 15.84, 15.84, 16.12, 15.69, 15.71, 15.78, 14.71, 10.76, 7.98, 6.34, 11.38, 15.65, 11.87, 11.9, 10.4, 9.86, 8.82, 8.43, 9.2, 8.8, 8.8, 6.95, 5.9, 5.9, 7.27, 7.27, 6.42, 8.38, 8.55, 8.55, 8.55, 8.03, 8.03, 8.03, 8.03, 8.03, 8.82, 9.2, 9.6, 9.3, 9.7, 10.48, 10.68, 10.32, 10.32, 10.62, 9.77, 9.32, 10.28, 12.07, 15.65, 20.12, 18.26, 8.8, 6.79, 6.47, 16.99, -4.34, -3.68, 0.0, 0.0, 2.87, 4.91, 4.91, 3.25, 5.28, 6.21, 8.3, 8.3, 8.59, 7.93, 7.93, 7.19, 5.77, 7.73, 11.17, 10.12, 9.77, 9.77, 8.84, 8.84, 9.24, 9.88, 10.57, 11.05, 10.65, 10.9, 11.45, 11.73, 11.06, 10.15, 9.92, 10.19, 11.7, 13.28, 12.56, 13.23, 14.71, 14.94, 15.36, 15.24, 13.46, 16.33, 15.65, 15.61, 5.8, 6.8, 9.39, 13.15, 13.28, 12.79, 12.33, 11.61, 10.75, 10.18, 10.14, 10.58, 11.02, 9.6, 8.8, 8.55, 8.94, 9.58, 9.97, 9.6, 9.6, 9.45, 9.45, 8.55, 7.27, 6.42, 6.42, 7.27, 6.42, 8.03, 8.55, 9.3, 10.48, 10.09, 10.88, 11.28, 11.09, 9.79, 9.83, 9.39, 9.39, 10.28, 10.73, 14.3, 17.35, 17.66, 19.61, 20.46, 16.39, 15.69, 12.33, 0.0, 0.0, 0.0, 4.67, 4.79, 4.01, 3.49, 3.9, 6.34, 8.21, 10.3, 9.16, 8.59, 7.93, 7.44, 6.0, 6.94, 8.66, 10.12, 9.8, 9.8, 8.84, 8.84, 8.84, 9.88, 10.57, 10.39, 10.39, 10.9, 11.45, 11.04, 10.61, 10.15, 9.92, 10.19, 11.19, 12.56, 11.7, 11.06, 14.13, 15.49, 15.14, 12.01, 10.61, 16.19, 16.09, 15.34, 14.75, 13.41, 13.86, 12.3, 11.2, 12.04, 11.95, 11.95, 11.51, 10.58, 10.58, 10.73, 10.73, 10.22, 10.47, 10.28, 10.7, 10.78, 10.78, 11.18, 9.89, 9.89, 9.2, 7.68, 5.06, 5.29, 5.52, 6.98, 6.95, 7.47, 8.59, 8.47, 9.38, 10.88, 10.84, 10.65, 10.73, 10.73, 10.28, 10.28, 10.28, 11.06, 11.3, 12.72, 15.54, 18.16, 22.28, 25.59, 20.91, 16.99, 18.08, 9.2, 0.0, 2.79, 5.09, 2.34, 2.11, 2.05, 4.01, 5.49, 7.1, 8.3, 8.87, 8.01, 9.48, 8.66, 6.8, 4.38, 8.66, 10.75, 10.43, 10.43, 8.84, 8.84, 8.84, 9.24, 9.67, 10.13, 10.9, 10.9, 11.45, 11.32, 10.61, 10.15, 9.92, 10.19, 10.19, 12.01, 12.56, 11.06, 12.0, 15.19, 16.02, 13.99, 15.27, 16.09, 15.93, 15.61, 13.56, 12.74, 11.92, 11.61, 11.18, 11.51, 11.51, 11.51, 11.51, 11.02, 11.02, 10.73, 10.73, 11.18, 11.18, 11.12, 11.12, 12.02, 11.57, 11.95, 9.74, 9.89, 8.82, 6.17, 3.65, 5.29, 5.52, 5.75, 6.7, 6.69, 8.41, 8.35, 10.09, 10.75, 11.18, 11.18, 10.73, 11.18, 10.23, 10.73, 10.32, 9.16, 9.84, 11.75, 13.99, 17.22, 22.93, 25.03, 19.29, 16.32, 15.02, 12.4, 5.31, 8.4, 3.42, 0.0, 0.0, 0.0, 1.72, 3.68, 3.68, 6.65, 7.79, 8.53, 8.85, 9.48, 7.59, 4.24, 7.13, 10.43, 10.43, 10.43, 8.25, 8.84, 8.84, 9.24, 9.67, 10.13, 9.92, 10.18, 10.73, 11.04, 10.61, 10.15, 9.17, 10.19, 10.19, 12.01, 12.01, 12.87, 13.39, 14.79, 15.71, 15.2, 14.75, 15.05, 15.97, 16.41, 15.61, 14.75, 13.72, 12.83, 11.95, 11.51, 11.51, 11.51, 11.46, 11.02, 11.51, 11.62, 11.18, 11.18, 11.18, 11.18, 11.18, 12.01, 11.12, 10.56, 10.62, 9.33, 6.17, 3.82, 3.82, 5.52, 5.52, 5.75, 5.52, 6.98, 6.97, 8.85, 10.09, 10.32, 10.28, 10.73, 11.12, 11.12, 11.12, 10.84, 7.56, 6.7, 7.19, 10.43, 13.02, 18.49, 22.69, 24.14, 6.71, 8.85, 13.59, 15.62, 19.19, 20.38, 17.39, 4.01, 0.0, 0.0, 0.0, 1.66, 3.68, 5.63, 6.6, 7.02, 8.53, 10.3, 11.17, 7.36, 5.31, 8.58, 11.8, 11.8, 8.25, 8.25, 8.61, 9.24, 9.67, 9.43, 9.92, 9.92, 10.46, 10.25, 10.61, 10.15, 9.17, 9.17, 9.42, 11.19, 12.78, 12.45, 13.76, 15.19, 16.22, 16.09, 14.75, 14.3, 14.75, 15.65, 16.09, 16.09, 15.2, 14.3, 13.41, 12.83, 11.91, 11.46, 11.46, 11.46, 11.51, 11.51, 11.51, 11.62, 11.62, 11.62, 11.55, 11.55, 11.35, 10.7, 10.18, 7.51, 4.2, 2.02, 3.82, 5.52, 5.52, 5.75, 5.52, 5.52, 6.5, 9.17, 10.79, 8.4, 9.32, 10.28, 11.53, 11.53, 11.06, 7.9, 5.2, 5.0, 6.45, 8.15, 11.88, 16.6, 26.37, -6.2, 0.0, 2.39, 7.19, 12.65, 16.48, 19.22, 19.22, 16.99, 4.95, 0.0, 0.0, 1.72, 3.36, 5.63, 5.99, 7.04, 7.54, 10.12, 11.9, 11.17, 8.58, 8.58, 11.44, 11.44, 8.25, 8.25, 8.61, 8.61, 8.97, 9.43, 9.43, 9.92, 10.46, 10.25, 10.61, 9.49, 9.17, 9.17, 9.42, 10.43, 12.01, 12.45, 13.23, 14.85, 15.52, 16.22, 15.55, 15.11, 14.3, 14.75, 15.2, 15.65, 15.65, 15.2, 14.3, 13.67, 12.79, 12.35, 11.46, 11.02, 11.06, 11.06, 11.51, 11.53, 11.53, 11.53, 11.53, 11.28, 11.28, 10.46, 11.2, 6.71, 3.98, 2.19, 4.32, 4.15, 5.52, 3.98, 3.82, 5.29, 5.7, 7.73, 9.17, 9.08, 8.22, 9.29, 11.06, 11.03, 7.15, 4.48, 4.99, 5.6, 6.2, 7.9, 10.27, 20.56, 25.93, -22.53, -9.17, 0.0, 0.0, 5.8, 13.19, 14.75, 16.09, 17.2, 17.43, 5.23, 0.0, 0.0, 2.34, 4.79, 5.94, 5.65, 7.6, 7.44, 9.8, 11.88, 12.27, 11.44, 11.09, 11.09, 8.25, 8.25, 8.61, 8.61, 8.33, 8.74, 9.43, 9.14, 9.67, 10.25, 9.74, 9.49, 8.51, 9.17, 9.17, 10.43, 10.15, 11.7, 12.45, 13.23, 14.4, 15.19, 15.69, 15.61, 15.08, 14.6, 14.75, 14.75, 15.2, 14.75, 14.75, 14.11, 13.23, 12.79, 12.35, 11.46, 11.06, 11.06, 11.06, 11.51, 11.53, 11.53, 10.84, 10.46, 10.46, 10.32, 10.4, 6.7, 3.45, 2.39, 2.33, 4.65, 3.98, 3.98, 3.82, 5.29, 6.17, 6.14, 6.97, 8.85, 9.3, 8.15, 8.54, 7.59, 6.16, 4.48, 4.99, 6.21, 7.41, 10.68, 13.41, 15.53, 19.59, -15.37, -14.26, -4.03, 0.0, 4.95, 6.4, 11.99, 13.86, 14.39, 15.02, 16.74, 17.19, 0.0, 0.0, 3.09, 2.87, 4.95, 2.79, 4.05, 7.93, 10.43, 11.5, 11.09, 11.09, 11.09, 8.03, 8.03, 8.03, 7.95, 8.33, 8.74, 9.19, 8.9, 9.67, 10.25, 9.12, 9.74, 8.51, 8.51, 8.51, 10.15, 10.15, 10.15, 12.45, 12.56, 13.82, 14.4, 15.19, 15.49, 15.04, 15.05, 14.6, 14.3, 14.3, 14.3, 14.3, 13.59, 13.15, 12.72, 11.87, 11.45, 11.03, 10.75, 10.75, 10.75, 10.75, 11.18, 10.27, 9.7, 9.86, 10.18, 10.4, 3.82, 1.22, 1.09, 1.23, 1.39, 2.45, 2.37, 4.15, 5.52, 6.17, 5.9, 4.6, 6.97, 9.42, 10.48, 7.51, 6.95, 5.92, 5.4, 5.6, 6.44, 9.84, 10.87, 11.98, 14.3, 16.76, 7.63, -10.13, -8.34, -3.6, 0.0, 5.8, 11.62, -0.0, -0.0, 6.31, 9.66, 12.01, 12.33, 0.0, 0.0, 0.0, 2.15, 5.37, 4.01, 4.18, 7.0, 8.66, 11.44, 11.09, 11.09, 7.4, 7.4, 7.4, 7.95, 8.33, 8.74, 8.74, 8.43, 9.42, 9.12, 9.12, 9.12, 8.51, 8.51, 8.51, 9.17, 10.15, 10.15, 10.89, 11.7, 12.56, 12.56, 13.46, 14.36, 15.47, 14.84, 14.99, 14.55, 14.3, 13.86, 13.15, 13.01, 12.04, 12.04, 10.73, 10.73, 10.73, 10.35, 10.35, 9.08, 8.73, 9.08, 8.93, 8.73, 8.93, 10.6, 9.3, -0.0, -0.0, -0.0, -0.0, -0.0, 1.28, 2.82, 5.0, 5.95, 6.44, 4.6, 4.2, 5.7, 10.35, 9.77, 9.7, 7.59, 6.21, 5.64, 6.7, 9.17, 10.99, 12.14, 12.86, 13.41, 14.66, 16.12, 0.0, -15.13, -11.0, -3.86, -5.8, -10.8, -5.98, -4.1, -0.0, 5.81, 9.2, 12.64, 16.99, 3.79, 0.0, 2.09, 4.18, 4.54, 2.47, 4.54, 6.8, 8.94, 10.12, 10.12, 7.4, 7.4, 7.4, 7.95, 8.33, 8.33, 7.99, 8.43, 8.9, 8.56, 9.12, 9.12, 8.13, 8.74, 8.74, 8.51, 9.17, 10.15, 10.89, 10.89, 11.7, 12.56, 13.46, 13.97, 14.39, 14.84, 14.9, 14.75, 14.75, 14.3, 13.15, 12.39, 11.99, 10.37, 10.73, 10.73, 9.77, 9.77, 9.42, 9.42, 9.08, 8.22, 7.9, 7.9, 8.18, 10.41, -0.0, -0.0, -0.0, -0.0, -0.0, 1.33, 1.52, 3.25, 5.95, 7.26, 6.71, 4.8, 4.6, 5.7, 9.3, 10.0, 9.77, 8.53, 6.45, 7.28, 10.09, 10.61, 11.45, 12.88, 14.3, 14.3, 13.33, 13.44, 14.9, 19.67, 23.69, -13.59, -11.53, -12.58, -8.53, -3.68, -2.2, -0.0, 6.0, 8.28, 11.06, 14.84, 8.68, 2.89, 2.43, 5.09, 2.72, 2.4, 4.54, 7.0, 7.82, 7.82, 7.4, 7.4, 7.4, 7.74, 8.33, 8.33, 7.99, 8.43, 8.9, 8.56, 9.12, 9.12, 8.13, 8.13, 8.74, 8.51, 9.17, 9.17, 9.92, 10.89, 11.7, 11.38, 12.22, 13.39, 13.99, 12.52, 13.59, 14.42, 14.75, 14.75, 12.79, 11.53, 11.53, 10.73, 10.37, 8.85, 8.85, 8.85, 8.53, 8.53, 8.22, 9.08, 8.73, 8.53, 8.53, 8.23, 4.2, -1.39, -0.0, -0.0, 1.39, 1.52, 2.82, 4.6, 6.7, 6.7, 5.4, 5.2, 5.95, 7.9, 9.3, 9.7, 9.82, 8.15, 7.41, 8.54, 10.43, 10.94, 11.35, 11.62, 13.77, 14.4, 13.77, 13.33, 14.3, 18.08, 17.52, -0.0, -18.78, -16.99, -10.01, -3.25, -2.06, -0.0, 2.54, 8.05, 8.05, 12.87, 16.09, 14.42, 8.93, 9.42, 7.4, 0.0, 2.4, 4.67, 7.4, 7.4, 7.4, 7.4, 7.4, 7.74, 8.33, 8.33, 7.99, 8.43, 8.9, 8.56, 8.56, 9.12, 8.13, 8.13, 8.74, 8.51, 9.17, 9.17, 9.92, 9.66, 9.66, 10.47, 11.06, 11.06, 11.06, 10.75, 10.75, 10.75, 10.43, 14.75, 10.12, 6.4, 9.8, 9.48, 9.17, 8.85, 7.51, 8.85, 8.53, 8.53, 8.53, 8.22, 9.08, 8.38, 7.9, 9.3, 5.0, -0.0, -0.0, 1.39, 3.07, 4.6, 4.6, 5.7, 6.7, 6.7, 6.14, 7.9, 7.26, 7.9, 8.38, 9.7, 9.82, 8.22, 9.16, 9.5, 10.18, 11.9, 10.27, 9.83, 10.32, 13.28, 16.09, 16.99, 16.54, 19.22, 18.66, 10.46, -5.8, -19.52, -20.38, -8.18, -2.54, -0.0, -0.0, 6.4, 9.8, 12.79, 14.42, 15.27, 15.65, 15.65, 14.84, 0.0, 0.0, 2.47, 5.51, 5.51, 7.4, 7.4, 7.4, 7.74, 8.11, 8.33, 7.99, 8.43, 8.67, 7.84, 8.56, 8.56, 8.13, 8.13, 8.74, 8.51, 8.93, 9.17, 9.17, 9.92, 9.66, 10.18, 10.02, 11.06, 9.49, 10.75, 10.43, 12.27, 6.4, 14.75, -0.0, -0.0, 10.12, 9.8, 9.48, 9.17, 8.85, 8.85, 8.85, 8.53, 9.66, 9.66, 9.3, 8.94, 7.59, 7.24, 4.48, 2.6, 2.82, 3.53, 3.39, 4.6, 5.7, 5.95, 6.7, 6.7, 6.42, 8.22, 7.59, 7.9, 8.73, 10.09, 9.82, 9.86, 10.8, 10.09, 9.67, 12.04, 10.8, 9.97, 9.39, 10.96, 14.84, 22.62, 21.01, 17.88, 14.79, 2.89, -4.01, -16.37, -21.25, -19.22, -7.0, -0.0, -0.0, 4.52, 10.12, 13.28, 14.11, 14.55, 14.55, 14.55, 15.2, 15.65, 0.0, 0.0, 2.79, 2.79, 7.2, 7.2, 7.4, 7.74, 7.74, 8.11, 7.78, 8.21, 8.21, 7.84, 8.33, 8.56, 8.56, 8.13, 8.13, 8.51, 8.93, 8.93, 9.17, 8.93, 9.39, 8.29, 9.09, 9.73, 8.43, 9.49, 10.43, 13.28, 14.84, 13.86, -0.0, -0.0, 6.4, 9.8, 9.8, 9.48, 9.17, 9.17, 8.85, 8.85, 8.53, 9.66, 9.3, 10.4, 8.94, 6.71, 4.15, 3.39, 3.39, 3.53, 4.8, 4.6, 5.95, 5.95, 5.7, 7.27, 7.9, 7.9, 8.38, 8.03, 9.42, 10.09, 10.4, 10.0, 10.4, 10.27, 9.89, 11.4, 12.14, 11.84, 9.2, 8.93, 12.87, 18.52, 29.06, 20.12, 10.12, -2.82, -6.2, -14.3, -18.33, -16.96, -12.01, 15.65, -0.0, 7.2, 13.02, 14.47, 14.3, 13.86, 13.86, 14.3, 14.75, 15.2, 0.0, 0.0, 0.0, 0.0, 7.2, 7.2, 7.2, 7.74, 7.74, 8.11, 7.78, 8.21, 8.21, 8.67, 7.84, 8.33, 8.56, 9.12, 8.13, 8.51, 8.51, 8.93, 8.93, 8.93, 8.68, 8.29, 8.83, 8.83, 8.43, 9.22, 12.65, 14.11, 13.86, 15.2, -0.0, -0.0, 9.8, 9.8, 12.39, 9.8, 9.48, 9.48, 10.79, 10.41, 10.41, 11.2, 10.8, 10.79, 10.0, 7.9, 2.71, 1.76, 1.76, 3.39, 4.6, 4.6, 6.2, 5.95, 5.7, 6.87, 6.87, 7.59, 7.27, 7.59, 8.24, 9.32, 9.97, 9.32, 9.7, 10.27, 10.32, 10.14, 11.62, 12.71, 10.8, 10.0, 10.88, 16.09, 28.16, 24.14, 15.25, -4.66, -11.09, -13.19, -16.09, -14.13, -9.92, 0.0, 16.99, 16.54, 15.27, 15.2, 14.11, 13.15, 12.58, 13.01, 13.86, 14.3, 14.3, 0.0, 0.0, 0.0, 7.2, 7.2, 7.2, 7.53, 7.74, 8.11, 7.78, 7.78, 8.21, 8.67, 8.67, 8.33, 8.33, 9.12, 7.92, 7.92, 8.28, 8.28, 8.93, 8.68, 8.68, 8.06, 8.06, 8.83, 9.44, 9.22, 12.27, 14.03, 14.75, 13.57, 9.48, 13.41, 13.41, 13.86, 9.8, 12.39, 9.8, 9.8, 9.48, 10.79, 10.79, 10.01, 11.2, 11.84, 11.28, 10.0, -0.0, -0.0, 1.76, 3.39, 4.8, 5.0, 5.95, 5.7, 5.7, 5.7, 6.58, 6.3, 7.27, 7.59, 10.01, 8.94, 7.9, 9.58, 8.55, 9.6, 9.6, 10.18, 11.4, 12.27, 11.72, 11.87, 12.35, 15.2, 23.69, 25.93, 21.68, -0.0, -16.91, -16.91, -16.99, -14.13, -7.6, 0.0, 0.0, 16.09, 16.09, 14.9, 13.57, 12.45, 11.62, 10.41, 11.87, 12.72, 13.41, 13.19, 0.0, 0.0, 6.89, 6.89, 7.2, 7.53, 7.53, 8.11, 7.78, 7.78, 8.21, 8.21, 8.67, 7.84, 8.33, 8.56, 8.88, 7.92, 8.28, 8.28, 8.28, 8.93, 8.68, 8.43, 8.06, 8.06, 8.57, 9.22, 11.44, 12.79, 14.3, 14.3, 14.3, 13.86, 13.41, 13.41, 13.41, 9.8, 9.8, 9.8, 9.48, 11.16, 9.48, 10.37, 10.73, 11.91, 12.07, 10.4, -0.0, -0.0, -0.0, 3.39, 4.8, 5.0, 4.8, 5.7, 5.95, 5.7, 6.3, 6.3, 6.3, 7.27, 7.56, 8.22, 8.58, 9.58, 9.58, 10.38, 9.6, 10.27, 10.75, 11.61, 12.14, 13.67, 14.11, 15.58, 19.67, 21.46, 20.48, 19.67, -20.56, -19.22, -17.43, -14.13, -8.68, -3.69, 0.0, 0.0, 12.27, 12.65, 11.5, 10.73, 11.62, 11.2, 10.41, 8.85, 12.3, 12.3, 13.19, 13.19, 6.7, 6.7, 7.2, 7.53, 7.53, 7.89, 8.51, 7.78, 8.21, 8.21, 8.67, 8.67, 8.33, 8.33, 8.33, 8.88, 7.71, 8.28, 8.28, 8.28, 8.68, 8.43, 8.43, 7.82, 8.57, 9.22, 10.12, 10.12, 11.9, 12.79, 10.12, 14.3, 13.86, 13.41, 13.41, 9.48, 9.48, 6.0, 9.48, 9.48, 9.48, 9.17, 11.12, 12.27, 12.07, 10.8, -0.0, -0.0, -0.0, 3.53, 4.8, 4.8, 4.8, 5.95, 5.7, 5.46, 5.46, 6.3, 6.3, 7.27, 7.27, 6.87, 9.2, 9.45, 9.45, 10.6, 9.45, 10.41, 10.84, 11.06, 12.71, 12.46, 15.49, 16.71, 19.17, 17.43, 17.43, 19.47, 0.0, -21.25, -19.52, -13.76, -6.4, -5.8, -3.25, 0.0, 7.78, 8.85, 10.73, 11.6, 12.3, 12.04, 10.37, 7.19, 6.94, 9.17, 13.15, 13.15, 7.0, 7.0, 7.2, 7.2, 7.53, 7.89, 8.51, 8.51, 8.94, 8.21, 8.67, 8.67, 8.67, 9.17, 8.33, 8.88, 8.64, 9.23, 8.28, 8.28, 8.05, 8.43, 8.43, 8.85, 8.57, 8.18, 8.94, 8.58, 7.93, 10.12, 10.12, 10.12, 14.3, 13.86, 13.86, 13.41, 9.48, 6.0, 6.0, 7.44, 7.44, 7.78, 8.85, 10.79, 9.3, 8.53, -0.0, -0.0, -0.0, 3.53, 5.0, 4.8, 4.8, 5.95, 5.46, 5.46, 5.46, 6.01, 6.95, 6.95, 6.95, 7.21, 8.82, 9.04, 9.86, 10.6, 9.46, 10.18, 10.65, 10.65, 11.51, 12.46, 15.43, 18.63, 20.94, 17.88, 13.8, 16.33, 0.0, -21.68, -16.37, -12.33, -9.12, -4.81, -2.37, 0.0, 4.98, 9.17, 11.6, 11.6, 12.46, 12.72, 11.5, 6.0, 3.14, 4.1, 9.48, 11.16, 7.0, 7.0, 7.0, 7.2, 7.53, 7.89, 7.89, 8.28, 8.94, 8.94, 9.41, 9.16, 8.43, 8.93, 9.17, 8.11, 8.64, 8.64, 9.23, 9.23, 8.97, 8.97, 8.43, 8.18, 7.82, 8.31, 8.94, 8.58, 8.58, 7.93, 6.4, 6.4, 10.12, 14.3, 13.86, 13.86, -0.0, 9.48, 6.0, 4.24, 7.44, 5.8, 7.51, 7.78, 6.71, 5.4, 1.98, -0.0, 1.64, 3.53, 5.0, 4.8, 5.52, 5.7, 5.46, 5.46, 5.21, 6.01, 6.64, 6.95, 6.95, 6.64, 8.58, 8.4, 9.04, 10.52, 10.52, 9.89, 10.32, 10.75, 10.75, 12.71, 14.55, 17.35, 24.07, 22.8, 14.47, 12.16, -17.59, -19.52, -13.59, -10.75, -9.12, -5.48, -2.28, 0.0, 4.38, 8.66, 11.16, 12.33, 12.33, 12.89, 11.99, 8.05, 0.0, 0.0, 4.24, 9.48, 7.6, 7.6, 7.6, 7.0, 7.53, 7.89, 7.89, 8.28, 8.7, 8.7, 8.7, 9.16, 9.41, 9.17, 9.17, 9.17, 9.17, 8.64, 8.64, 8.97, 8.97, 8.72, 8.72, 9.06, 8.85, 8.31, 7.93, 7.36, 8.58, 6.4, 7.93, 6.4, 10.12, 10.12, 14.3, 14.3, -0.0, -0.0, 6.0, 4.24, 4.24, 3.14, 5.8, 6.21, 7.78, 5.98, 3.82, 1.71, 3.19, 3.53, 5.0, 5.52, 5.52, 6.42, 6.14, 5.46, 5.21, 6.32, 6.64, 6.64, 6.95, 7.21, 6.32, 9.13, 9.55, 9.55, 9.04, 9.89, 10.32, 10.27, 10.27, 11.51, 13.86, 15.65, 19.52, 26.69, 20.7, -8.93, -14.3, -13.44, -11.16, -9.48, -9.48, -6.0, -2.72, 0.0, 2.35, 6.6, 10.12, 11.53, 12.03, 12.74, 12.39, 8.31, 0.0, 0.0, 0.0, 4.24, 7.6, 7.6, 7.6, 7.6, 7.93, 8.29, 8.53, 8.28, 8.28, 9.35, 8.7, 9.41, 9.41, 9.41, 9.17, 9.17, 9.17, 9.47, 8.64, 8.4, 8.72, 8.72, 8.46, 8.46, 8.18, 7.58, 7.1, 7.93, 7.36, 8.58, 7.93, 4.38, 6.4, 10.12, 14.3, 14.3, 13.86, -0.0, 6.2, 6.2, 4.24, 4.1, 3.14, 5.6, 7.51, 6.0, 5.2, 3.53, 3.39, 3.39, 5.52, 5.29, 5.29, 6.42, 6.14, 5.86, 5.86, 6.32, 6.32, 6.64, 6.64, 6.64, 8.58, 7.87, 7.87, 8.82, 9.04, 9.96, 9.2, 9.7, 10.68, 11.51, 12.96, 13.86, 15.65, 19.95, 0.0, -25.32, -17.88, -13.59, -14.31, -13.19, -10.75, -7.2, -3.16, 0.0, 2.43, 6.6, 8.18, 10.12, 11.9, 12.42, 11.53, 8.31, 0.0, -4.1, 0.0, 0.0, 7.6, 7.6, 7.6, 7.6, 7.93, 8.29, 8.53, 8.93, 8.93, 9.35, 9.61, 10.08, 9.41, 9.41, 9.92, 9.92, 9.17, 8.93, 9.47, 9.2, 8.94, 9.49, 9.22, 9.22, 9.06, 8.18, 7.58, 7.1, 7.93, 7.36, 6.4, 7.93, 6.4, 6.4, 9.8, 14.3, 14.3, 10.12, 6.4, 6.2, 4.38, 4.24, 7.19, 5.8, 5.8, 7.78, 6.21, 5.52, 5.29, 5.29, 5.29, 5.06, 5.06, 6.14, 5.86, 5.86, 5.59, 6.32, 6.32, 6.32, 6.64, 6.32, 6.52, 7.87, 7.87, 6.95, 7.27, 8.23, 8.55, 9.3, 10.68, 11.06, 12.96, 12.39, 14.75, 16.09, 21.9, -0.0, -26.72, -21.46, -18.41, -15.99, -12.96, -8.2, -4.23, 0.0, 2.89, 4.52, 8.18, 10.12, 10.12, 11.9, 10.82, 6.0, -4.1, -4.1, -4.1, -4.1, 7.38, 7.38, 7.6, 7.6, 7.93, 8.29, 8.53, 8.93, 8.93, 9.35, 9.61, 10.08, 10.08, 9.41, 9.92, 9.92, 9.66, 9.66, 9.66, 8.94, 8.94, 8.68, 8.68, 9.22, 9.22, 9.06, 8.58, 7.58, 7.1, 7.93, 7.36, 6.4, 7.93, 10.12, 9.8, 14.3, 14.3, 10.12, 10.12, 6.4, 4.38, 4.24, 7.44, 5.8, 5.8, 7.78, 7.51, 5.98, 5.52, 5.29, 5.06, 5.06, 4.83, 5.86, 5.86, 5.59, 5.59, 6.01, 6.01, 6.32, 6.32, 6.32, 6.87, 8.58, 7.87, 6.95, 8.82, 7.59, 7.9, 10.0, 10.75, 10.73, 11.62, 12.96, 13.41, 15.2, 17.46, 22.69, 28.35, 19.28, -24.14, -21.59, -17.07, -12.15, 0.0, 4.12, 5.81, 7.59, 6.4, 7.93, 9.8, 10.82, 11.88, 0.0, -4.1, -4.1, -4.1, -4.1, 7.38, 7.38, 7.38, 7.6, 7.93, 7.93, 8.29, 8.29, 9.52, 9.94, 9.94, 9.81, 10.08, 9.81, 10.3, 9.66, 9.66, 9.39, 9.39, 9.62, 9.34, 9.34, 9.34, 9.34, 9.22, 8.94, 8.78, 8.58, 8.31, 8.31, 7.93, 7.36, 8.58, 7.93, 10.12, 12.79, 14.3, 14.3, 12.79, 10.12, 9.8, 7.69, 7.44, 7.19, 7.78, 7.51, 7.51, 6.21, 5.98, 5.75, 5.29, 5.06, 5.9, 6.64, 5.86, 5.31, 5.31, 5.03, 5.69, 6.01, 6.01, 6.32, 6.87, 6.01, 7.59, 7.87, 8.43, 8.63, 8.93, 10.32, 11.4, 10.18, 11.18, 12.52, 13.41, 14.22, 15.78, 17.68, 21.43, 24.49, 27.76, -12.79, -18.33, -10.6, 0.0, 4.34, 7.6, 9.66, 9.49, 8.66, 10.12, 10.01, 10.79, 5.8, 0.0, -3.96, -3.96, -3.96, 7.38, 7.38, 7.38, 7.38, 7.93, 7.71, 8.29, 8.86, 9.25, 9.52, 9.94, 9.94, 10.4, 9.81, 9.81, 10.02, 10.02, 9.39, 9.12, 9.12, 9.62, 9.34, 9.34, 9.34, 9.06, 9.57, 8.94, 8.78, 8.58, 8.31, 9.16, 8.94, 10.12, 10.12, 11.9, 12.79, 14.3, 14.3, 12.79, 12.79, 9.8, 7.44, 7.44, 7.19, 7.78, 7.51, 7.24, 6.21, 5.98, 5.98, 5.75, 5.52, 6.17, 6.95, 6.95, 5.59, 5.59, 5.31, 5.69, 5.69, 6.01, 6.01, 6.32, 6.64, 6.79, 8.82, 9.13, 8.6, 9.46, 9.89, 10.18, 10.62, 11.28, 12.42, 13.33, 13.53, 14.9, 15.83, 17.59, 18.54, 24.41, 30.84, -9.05, -10.2, -5.1, 0.0, 10.17, 12.33, 12.52, 12.27, 11.16, 10.8, 12.14, 11.2, 5.6, 0.0, 0.0, 0.0, 7.38, 7.38, 7.38, 7.38, 8.26, 8.26, 8.61, 8.86, 9.25, 9.25, 9.67, 9.67, 10.11, 10.11, 10.11, 10.02, 10.02, 9.73, 9.73, 9.73, 10.22, 9.92, 9.06, 9.06, 9.06, 9.06, 9.57, 8.94, 8.78, 8.58, 9.31, 9.16, 10.12, 10.12, 11.44, 11.9, 14.3, 14.3, 13.57, 13.15, 11.53, 11.16, 9.48, 9.17, 9.17, 7.51, 8.53, 8.53, 7.26, 5.98, 5.75, 5.52, 5.52, 7.27, 6.95, 6.14, 5.59, 5.31, 5.03, 5.69, 5.69, 6.01, 6.01, 6.32, 6.79, 8.43, 8.72, 8.72, 9.13, 9.04, 9.89, 10.84, 11.28, 12.22, 12.88, 13.33, 14.23, 15.12, 15.83, 15.96, 18.11, 25.73, 12.99, -11.8, -10.4, 0.0, 5.65, 11.06, 11.8, 12.71, 12.27, 12.14, 11.71, 11.71, 10.04, 3.82, 3.82, 3.82, 7.93, 7.93, 7.93, 7.69, 8.26, 8.26, 8.61, 8.61, 8.99, 9.25, 9.67, 9.67, 10.11, 10.11, 10.11, 10.27, 9.73, 9.73, 9.73, 9.73, 9.44, 9.92, 9.62, 9.62, 9.62, 9.62, 10.12, 9.57, 9.5, 9.5, 9.42, 10.12, 10.12, 11.17, 12.27, 12.79, 13.88, 14.3, 13.86, 13.44, 11.99, 11.99, 10.37, 9.17, 9.17, 10.01, 8.53, 8.53, 8.22, 7.26, 5.75, 5.75, 5.52, 7.59, 7.27, 6.95, 6.64, 6.32, 6.01, 5.69, 5.37, 5.69, 6.01, 5.72, 6.32, 8.23, 8.82, 8.43, 8.43, 9.04, 9.63, 10.41, 11.28, 12.0, 12.52, 13.41, 13.86, 14.23, 14.47, 14.99, 15.96, 19.73, 25.59, -6.83, -16.09, -6.79, 0.0, 7.19, 11.6, 11.2, 12.14, 12.07, 11.62, 10.84, 10.84, 8.93, 8.93, 8.93, 7.69, 7.69, 7.69, 7.69, 8.01, 8.01, 8.36, 8.61, 8.99, 8.99, 9.39, 9.39, 9.89, 10.31, 9.82, 9.82, 10.27, 10.27, 10.27, 9.97, 9.97, 10.12, 10.12, 9.62, 9.62, 9.62, 10.12, 10.12, 10.12, 10.12, 10.12, 11.1, 11.2, 12.0, 11.9, 13.57, 14.03, 13.86, 13.86, 13.15, 13.15, 12.04, 11.6, 10.37, 10.01, 10.01, 9.66, 8.53, 8.22, 7.26, 6.98, 5.75, 5.75, 7.59, 8.03, 8.03, 6.95, 6.64, 6.01, 5.69, 5.69, 5.37, 5.69, 6.01, 5.44, 6.32, 7.56, 8.0, 8.0, 8.54, 9.21, 10.2, 11.09, 12.07, 12.52, 12.96, 13.33, 13.09, 13.7, 14.13, 14.99, 16.22, 20.12, 0.0, -14.26, -10.0, 4.24, 5.7, 6.45, 8.85, 10.04, 11.28, 10.73, 10.73, 9.97, 9.54, 9.54, 9.54, 7.69, 7.69, 7.69, 7.69, 8.01, 8.01, 8.36, 8.36, 8.72, 8.99, 8.99, 9.89, 9.89, 10.31, 10.31, 10.61, 10.27, 10.27, 9.97, 9.97, 9.67, 10.12, 10.12, 10.12, 10.12, 10.12, 10.12, 10.58, 10.58, 10.63, 11.52, 11.03, 11.64, 12.51, 12.79, 13.15, 13.75, 13.86, 13.86, 13.23, 13.23, 12.3, 12.04, 11.62, 10.73, 10.73, 10.35, 10.35, 9.08, 9.08, 7.26, 6.98, 6.98, 7.59, 8.38, 8.03, 7.68, 6.64, 6.32, 6.01, 6.28, 5.37, 5.37, 5.69, 5.69, 6.32, 7.21, 7.9, 8.37, 8.37, 8.93, 9.46, 9.83, 11.18, 12.07, 12.52, 12.66, 12.3, 13.15, 14.47, 14.47, 14.68, 15.65, 15.62, -12.19, -4.77, 4.81, 3.39, 3.39, 3.53, 6.45, 8.22, 10.6, 10.41, 9.97, 9.54, 9.54, 9.54, 7.69, 7.46, 7.46, 7.46, 7.77, 7.77, 8.1, 8.85, 9.22, 9.22, 9.22, 9.6, 9.89, 10.61, 10.61, 10.31, 10.31, 10.43, 9.97, 9.67, 9.67, 9.67, 10.12, 10.12, 10.12, 10.12, 10.12, 10.58, 10.92, 11.42, 11.42, 11.93, 12.09, 12.65, 13.07, 13.57, 13.88, 13.75, 13.86, 13.41, 13.28, 12.83, 12.3, 11.87, 11.62, 10.35, 10.35, 10.35, 9.08, 9.08, 9.08, 7.26, 6.98, 7.59, 8.38, 8.03, 7.68, 7.33, 6.32, 6.32, 6.63, 6.28, 5.93, 5.93, 5.37, 5.06, 7.33, 6.64, 6.95, 7.9, 8.73, 9.32, 9.45, 9.46, 11.18, 11.53, 11.72, 12.3, 13.09, 13.79, 14.3, 14.3, 14.3, 16.12, -21.29, -9.8, 0.0, 3.82, 7.9, 7.9, 3.53, 3.53, 8.22, 9.3, 10.41, 9.54, 9.54, 9.54, 7.46, 7.46, 7.46, 7.46, 7.77, 7.77, 8.1, 8.58, 8.58, 9.22, 9.49, 9.89, 10.18, 9.89, 10.31, 10.31, 10.01, 10.43, 10.12, 10.12, 10.12, 10.12, 10.54, 10.54, 10.54, 10.54, 10.54, 11.33, 11.33, 11.8, 11.8, 12.27, 12.45, 12.95, 13.02, 13.28, 13.59, 13.77, 13.41, 13.41, 12.96, 12.83, 12.39, 12.04, 11.87, 11.45, 10.8, 10.8, 10.8, 9.67, 9.08, 8.22, 8.22, 7.9, 8.38, 8.03, 7.68, 7.33, 6.98, 6.98, 6.63, 6.28, 6.28, 5.93, 5.37, 5.37, 6.64, 6.64, 7.56, 7.21, 8.18, 8.93, 9.32, 8.93, 9.75, 10.27, 10.48, 11.72, 12.88, 12.96, 13.41, 13.86, 14.75, -24.39, -23.77, -10.4, 0.0, 0.0, 5.4, 8.53, 6.45, 4.1, 3.68, 6.45, 9.6, 9.2, 9.2, 9.2, 7.23, 7.23, 7.23, 7.23, 7.77, 7.77, 8.25, 8.58, 8.85, 9.49, 9.49, 9.89, 9.89, 9.89, 10.31, 10.01, 10.01, 10.43, 10.12, 10.12, 10.12, 10.12, 10.54, 10.54, 10.54, 10.87, 11.33, 11.33, 11.33, 11.8, 11.8, 12.27, 12.74, 12.79, 13.2, 13.44, 13.37, 13.59, 13.34, 13.41, 12.96, 12.86, 12.42, 12.39, 12.04, 11.45, 10.8, 10.8, 10.8, 10.8, 10.04, 8.53, 8.22, 7.9, 8.38, 8.03, 7.68, 7.33, 6.98, 6.98, 6.63, 6.28, 5.93, 5.93, 5.93, 5.37, 5.37, 5.93, 9.2, 9.2, 9.45, 9.45, 8.93, 9.2, 8.37, 8.24, 10.09, 11.61, 12.42, 12.52, 12.96, 13.75, 18.33, -24.49, -20.94, -9.8, -4.23, 0.0, 3.82, 6.45, 6.2, 3.53, 3.53, 6.2, 8.93, 9.2, 9.2, 9.2, 7.23, 7.23, 7.23, 7.23, 7.53, 8.25, 8.25, 8.85, 8.85, 9.22, 9.22, 9.89, 9.6, 9.6, 10.01, 10.01, 10.01, 10.01, 10.43, 10.12, 10.43, 10.43, 10.87, 10.87, 10.87, 11.33, 11.68, 11.68, 11.69, 12.13, 12.13, 12.56, 12.6, 12.79, 13.2, 13.15, 13.44, 13.63, 13.36, 13.41, 12.96, 12.96, 12.44, 12.42, 12.42, 11.61, 11.61, 10.8, 11.09, 11.09, 10.04, 9.42, 8.22, 7.9, 9.2, 8.82, 8.43, 8.05, 7.67, 7.67, 7.28, 6.9, 5.93, 5.93, 6.28, 5.69, 6.44, 6.9, 9.55, 10.18, 10.32, 10.05, 10.05, 9.2, 8.8, 9.21, 9.86, 11.18, 12.39, 11.87, 11.87, 11.16, 8.4, -21.59, -19.28, -12.34, -4.01, 0.0, 0.0, 2.71, 6.2, 3.68, 5.2, 7.9, 9.3, 8.18, 8.18, 8.18, 7.69, 7.69, 7.69, 7.69, 8.25, 8.25, 8.25, 8.58, 8.85, 9.22, 9.22, 9.66, 10.04, 9.6, 9.6, 10.01, 10.01, 10.01, 10.43, 10.43, 10.43, 10.87, 10.87, 11.2, 11.68, 12.05, 12.05, 11.69, 12.13, 12.13, 12.56, 12.18, 12.6, 12.99, 13.35, 13.15, 13.44, 13.23, 13.36, 12.96, 12.96, 12.96, 12.52, 12.52, 12.42, 11.98, 11.61, 11.61, 11.09, 11.09, 11.09, 10.04, 8.22, 8.94, 9.2, 9.2, 8.8, 8.05, 8.05, 7.67, 7.28, 6.9, 6.7, 6.28, 6.28, 6.28, 7.28, 7.89, 8.06, 10.18, 10.32, 10.41, 10.41, 9.63, 9.63, 9.63, 10.2, 11.06, 11.51, 11.45, 10.41, 10.99, 13.96, 21.01, -22.89, -17.39, -8.0, -3.47, 0.0, 0.0, 3.68, 5.2, 5.2, 8.22, 7.9, 8.55, 8.55, 8.55, 7.69, 7.69, 7.69, 7.69, 7.99, 7.99, 7.99, 8.58, 8.58, 8.58, 8.94, 9.37, 10.04, 10.04, 10.04, 10.01, 10.01, 10.31, 10.75, 10.75, 11.17, 11.6, 11.6, 12.05, 12.05, 12.05, 12.05, 12.13, 12.13, 12.13, 12.18, 12.18, 12.6, 12.99, 12.93, 13.25, 13.5, 13.01, 13.23, 12.92, 12.96, 12.96, 12.52, 12.52, 12.52, 12.42, 11.71, 11.61, 11.61, 11.61, 11.09, 9.08, 7.9, 9.58, 9.2, 9.2, 8.8, 8.8, 8.05, 7.67, 7.67, 7.6, 7.2, 6.7, 6.28, 7.28, 7.28, 7.89, 8.06, 10.14, 9.89, 10.32, 9.63, 9.21, 9.04, 9.04, 9.46, 10.18, 10.62, 11.18, 10.79, 11.53, 13.58, 13.59, -24.6, -23.77, -11.53, -4.12, -3.14, 0.0, 0.0, 0.0, 5.4, 8.22, 7.9, 7.9, 7.9, 7.9, 7.69, 7.69, 7.69, 7.69, 7.99, 7.99, 7.99, 8.31, 8.31, 8.58, 8.94, 9.66, 10.04, 10.04, 10.34, 10.75, 10.31, 10.31, 10.75, 11.17, 11.6, 11.6, 11.6, 12.05, 11.69, 12.05, 12.13, 12.13, 11.76, 12.18, 12.18, 12.6, 12.6, 12.58, 12.93, 13.25, 12.82, 13.07, 13.23, 12.92, 12.92, 12.96, 12.52, 12.52, 12.52, 12.52, 11.98, 11.71, 11.71, 11.71, 11.61, 10.4, 9.58, 9.58, 9.96, 9.75, 9.33, 9.33, 8.4, 8.0, 8.0, 7.6, 7.2, 7.6, 7.6, 7.6, 8.0, 8.48, 8.48, 10.14, 9.75, 9.45, 9.04, 8.63, 8.63, 8.63, 9.03, 9.03, 10.18, 10.68, 11.5, 12.33, 13.56, 14.95, -16.75, -25.73, -16.81, -10.17, -8.93, -4.38, -5.8, 0.0, 5.8, 5.8, 5.6, 5.6, 5.6, 5.6, 7.44, 7.44, 7.44, 7.69, 7.99, 7.99, 7.99, 7.99, 8.31, 8.58, 8.94, 9.22, 9.66, 10.34, 10.34, 10.75, 10.75, 10.31, 10.75, 10.75, 11.6, 11.26, 11.6, 12.05, 11.69, 12.13, 12.13, 11.76, 12.18, 12.18, 12.79, 12.79, 13.15, 12.74, 13.05, 12.82, 12.82, 13.07, 12.81, 12.79, 12.92, 12.91, 12.96, 12.52, 12.52, 12.52, 11.98, 11.98, 11.98, 11.71, 11.28, 10.0, 9.58, 9.6, 10.18, 9.75, 9.75, 9.33, 8.91, 8.0, 7.6, 7.6, 7.6, 7.6, 7.6, 7.6, 8.48, 8.48, 8.82, 8.6, 9.11, 10.75, 9.89, 9.03, 9.03, 9.03, 9.03, 9.46, 9.89, 10.68, 11.5, 12.89, 14.18, 15.69, 10.2, -26.89, -19.17, -13.91, -12.64, -11.7, -11.38, -6.6, 0.0, 0.0, 9.17, 9.17, 9.17, 9.17, 7.44, 7.44, 7.44, 7.44, 7.73, 7.99, 7.99, 7.99, 8.31, 8.58, 8.94, 9.22, 9.66, 10.34, 10.34, 10.75, 10.75, 10.75, 10.75, 10.75, 10.87, 11.26, 11.6, 12.05, 11.69, 12.13, 11.76, 12.18, 12.18, 12.42, 12.79, 12.79, 12.74, 12.74, 13.05, 12.89, 12.82, 12.63, 12.63, 12.81, 12.79, 12.92, 12.91, 12.96, 12.52, 12.52, 12.07, 11.98, 11.98, 11.98, 11.28, 10.6, 10.6, 10.18, 9.75, 9.75, 9.75, 9.33, 8.91, 8.0, 8.0, 7.6, 7.6, 7.6, 8.06, 8.06, 8.48, 8.82, 8.82, 8.85, 9.29, 11.06, 9.89, 10.58, 9.03, 9.46, 9.46, 9.54, 9.89, 10.32, 11.61, 12.46, 13.75, 15.04, 16.81, -27.72, -18.78, -16.45, -13.28, -13.28, -9.92, -11.7, -6.6, 0.0, 0.0, 9.17, 9.17, 9.17, 7.44, 7.44, 7.44, 7.44, 7.73, 7.73, 7.73, 7.99, 8.31, 8.58, 8.58, 9.22, 9.22, 10.04, 10.04, 10.43, 10.43, 10.43, 10.84, 10.43, 10.43, 11.26, 11.26, 11.69, 12.13, 11.76, 11.76, 12.18, 12.42, 12.79, 12.79, 12.74, 12.74, 13.05, 12.63, 12.89, 12.82, 12.63, 12.63, 12.81, 12.79, 12.92, 12.92, 12.47, 12.52, 12.52, 12.07, 12.07, 12.07, 11.53, 11.28, 10.75, 10.6, 10.18, 10.32, 9.89, 9.89, 9.46, 8.91, 8.91, 8.0, 7.6, 7.6, 8.06, 8.06, 8.06, 8.82, 8.82, 8.94, 8.94, 9.39, 9.39, 9.32, 11.46, 9.29, 9.74, 9.74, 9.76, 9.89, 10.32, 11.18, 12.46, 13.44, 13.81, 17.26, 20.83, -22.9, -18.02, -16.45, -14.22, -13.59, -12.33, -11.38, -6.4, 0.0, 0.0, 0.0, 0.0, 7.44, 7.44, 7.44, 7.44, 7.73, 7.73, 7.73, 7.99, 8.31, 8.58, 8.58, 9.22, 9.22, 10.04, 10.04, 10.43, 10.43, 10.43, 10.84, 10.43, 10.43, 11.26, 11.26, 11.69, 12.13, 11.76, 11.76, 12.18, 12.42, 12.79, 12.79, 12.74, 12.74, 13.05, 12.63, 12.89, 12.82, 12.63, 12.63, 12.81, 12.79, 12.92, 12.92, 12.47, 12.52, 12.52, 12.07, 12.07, 12.07, 11.53, 11.28, 10.75, 10.6, 10.18, 10.32, 9.89, 9.89, 9.46, 8.91, 8.91, 8.0, 7.6, 7.6, 8.06, 8.06, 8.06, 8.82, 8.82, 8.94, 8.94, 9.39, 9.39, 9.32, 11.46, 9.29, 9.74, 9.76, 9.76, 9.89, 10.32, 11.18, 12.04, 13.01, 13.39, 15.07, 18.84, 21.19, -21.01, -18.79, -16.81, -16.09, -15.99, -14.51, -13.99, -9.17, 0.0, 0.0, 0.0]}, {"header": {"dx": 0.06612293990616946, "dy": 0.0552356325346848, "nx": 98, "ny": 59, "la1": 35.046912555036876, "la2": 31.78801023549047, "lo1": -121.43107172385933, "lo2": -114.95102361305473, "refTime": "2026041800", "parameterCategory": 1, "parameterNumber": 3}, "data": [-14.91, -14.91, -14.53, -13.74, -12.9, -12.29, -11.38, -10.39, -9.33, -9.06, -7.93, -6.51, -6.2, -3.14, -1.33, 0.0, 0.0, 0.0, 0.0, 0.0, 0.0, 0.0, 0.0, 0.0, 0.0, 0.0, -1.33, -3.04, -6.7, -10.8, -12.39, -12.79, -12.35, -11.02, -10.08, -9.64, -8.72, -8.05, -7.33, -8.03, -7.56, -8.59, -8.22, -8.85, -9.39, -4.45, 15.8, 25.03, 19.22, 13.86, 12.79, 10.43, 10.75, 13.99, 13.99, 7.0, 0.0, 0.0, 0.0, 0.0, 0.0, 15.65, 15.2, 0.0, 0.0, -7.0, -11.38, -14.39, -16.09, -16.09, -16.09, -15.65, -15.65, -15.65, -15.65, -15.65, -14.75, -14.11, -13.99, -13.99, -12.79, -11.16, -9.96, -8.85, -7.85, -6.16, -5.4, -4.54, -3.53, -3.21, -3.73, -4.11, -2.89, -1.68, 0.0, 6.4, 11.99, -0.0, -14.91, -14.53, -14.53, -13.74, -13.49, -12.63, -11.38, -10.39, -10.1, -9.06, -7.69, -7.82, -6.0, -5.08, -3.56, -1.71, 0.0, 0.0, 0.0, 0.0, 0.0, 0.0, 0.0, 0.0, 0.0, 0.0, 0.0, -1.5, -4.75, -8.85, -13.57, -13.72, -12.35, -9.7, -7.94, -8.77, -7.94, -8.48, -8.4, -9.2, -10.41, -11.5, -10.37, -9.49, -4.66, 16.44, 25.48, 20.12, 13.86, 13.19, 10.43, 10.75, 15.2, 15.2, 6.8, 0.0, 0.0, 0.0, 0.0, 0.0, 0.0, 0.0, 0.0, 0.0, 0.0, -7.0, -14.39, -14.39, -16.09, -16.09, -15.69, -15.27, -16.09, -15.2, -15.2, -14.75, -14.75, -14.11, -13.99, -13.99, -12.79, -11.16, -9.96, -8.85, -7.85, -6.16, -5.4, -4.54, -3.53, -3.21, -3.73, -4.11, -2.89, -1.68, 0.0, 6.4, 11.99, -0.0, -14.91, -14.53, -14.66, -14.3, -13.84, -12.96, -11.7, -11.38, -10.1, -9.8, -9.42, -8.54, -7.34, -5.8, -3.68, -2.52, -1.28, -1.28, 0.0, 0.0, 0.0, 0.0, 0.0, 0.0, 0.0, 0.0, 0.0, -1.33, -2.71, -5.77, -12.27, -13.97, -13.75, -10.84, -8.38, -9.11, -8.82, -8.82, -9.46, -10.68, -11.2, -12.81, -14.3, -6.5, 15.8, 21.46, 17.43, 13.41, 13.19, 10.75, 6.8, 10.75, 0.0, 0.0, 0.0, 0.0, 0.0, -7.0, -7.0, 0.0, 0.0, 0.0, 0.0, -10.75, -6.8, -11.06, -13.99, -15.65, -15.65, -16.09, -14.39, -15.27, -15.65, -15.2, -14.75, -14.75, -14.99, -14.99, -13.75, -13.99, -13.15, -12.33, -11.26, -9.82, -8.82, -7.56, -5.43, -4.54, -4.54, -4.65, -5.81, -4.75, -3.16, 0.0, 0.0, 3.81, 6.67, 11.2, -14.91, -14.53, -14.66, -13.84, -13.84, -12.96, -12.63, -11.7, -11.06, -9.8, -10.69, -10.36, -9.31, -6.63, -4.24, -3.68, -2.52, -2.62, -1.28, -1.33, 0.0, 0.0, 0.0, 0.0, 0.0, 0.0, 0.0, -1.22, -3.45, -6.5, -9.16, -12.03, -14.38, -15.34, -12.14, -10.73, -10.28, -10.73, -12.42, -13.44, -15.9, -17.85, -13.91, 0.0, 15.2, 13.86, 13.86, 14.3, 10.43, 0.0, 0.0, 0.0, 0.0, 0.0, -6.6, -10.43, -4.81, -7.0, -11.06, -11.06, -15.2, -15.2, -14.75, -13.19, -10.43, -14.42, -15.65, -15.65, -17.43, -17.88, -16.99, -15.65, -15.65, -14.75, -13.88, -13.59, -14.55, -14.99, -14.61, -13.32, -12.56, -12.33, -11.26, -10.09, -9.09, -8.82, -7.85, -6.97, -6.2, -7.0, -8.0, -6.9, -4.95, -1.63, 0.0, 1.66, 3.56, 6.94, -14.91, -15.07, -14.66, -13.84, -13.84, -13.29, -12.96, -12.63, -11.06, -10.75, -10.96, -10.82, -10.12, -7.54, -4.24, -4.24, -3.68, -2.62, -2.52, -2.93, -2.13, 0.0, 0.0, 0.0, 0.0, 0.0, 0.0, -2.37, -4.15, -6.58, -8.15, -9.48, -10.4, -11.5, -13.88, -14.3, -15.2, -13.86, -16.09, -17.43, -16.99, -15.2, -13.41, 0.0, 0.0, 0.0, 0.0, 0.0, 0.0, 0.0, 0.0, 0.0, -6.4, -6.6, -10.43, -10.43, -10.75, -11.06, -11.06, -15.2, -14.75, -14.3, -14.3, -13.99, -13.99, -16.54, -16.99, -16.54, -18.33, -20.12, -19.67, -17.88, -18.33, -17.43, -15.34, -12.04, -12.87, -13.57, -13.72, -13.01, -12.14, -12.14, -10.8, -10.0, -10.0, -9.86, -9.16, -8.22, -10.3, -10.98, -9.67, -8.29, -6.6, -3.25, 0.0, 0.0, 1.83, 4.65, -14.91, -15.07, -14.66, -14.3, -13.84, -13.84, -12.96, -12.63, -11.38, -11.06, -11.76, -11.17, -10.12, -7.54, -4.93, -4.24, -3.82, -2.93, -4.24, -4.24, -3.19, -1.5, 0.0, 0.0, 0.0, 0.0, 0.0, -2.37, -3.14, -7.24, -8.0, -8.72, -8.72, -8.73, -11.45, -12.39, -9.48, -11.09, -14.11, -12.79, -11.2, -10.12, -0.0, -0.0, -0.0, 0.0, 0.0, 0.0, 0.0, -6.4, -6.2, -9.8, -9.8, -10.12, -10.43, -10.43, -10.43, -13.19, -15.2, -14.75, -13.86, -13.41, -14.75, -14.42, -16.09, -16.99, -17.43, -16.54, -16.99, -20.12, -21.9, -20.12, -18.33, -18.78, -18.08, -15.36, -11.5, -12.3, -12.79, -12.83, -11.71, -10.88, -10.4, -10.4, -10.4, -10.16, -11.53, -14.13, -14.13, -12.64, -10.47, -9.09, -7.76, -2.13, 0.0, 1.9, 1.83, 2.45, -14.91, -15.07, -14.66, -14.3, -13.84, -13.84, -13.49, -12.9, -12.24, -11.58, -11.76, -11.35, -10.86, -7.54, -6.0, -5.2, -3.82, -4.39, -4.39, -3.82, -2.62, 0.0, 0.0, 1.61, 2.06, 0.0, 0.0, 0.0, 0.0, 0.0, -6.71, -8.34, -8.18, -7.51, -7.9, 0.0, -0.0, -4.24, -8.22, -3.25, -0.0, 12.96, 14.3, 15.2, 15.65, 15.2, 0.0, -10.75, -6.2, -6.2, -12.79, -12.39, -11.9, -12.27, -11.9, -9.8, -12.79, -10.12, -14.3, -13.86, -9.48, -13.41, -15.2, -16.09, -16.54, -16.54, -16.99, -16.09, -15.65, -17.53, -20.56, -19.67, -16.99, -16.54, -16.82, -16.76, -14.42, -11.99, -12.72, -13.01, -11.71, -12.14, -12.39, -13.07, -13.89, -15.19, -15.99, -16.74, -15.38, -13.58, -13.23, -12.33, -5.81, 0.0, 2.2, 0.0, 0.0, 3.14, -14.55, -14.7, -14.7, -14.3, -14.3, -13.84, -13.49, -12.57, -11.7, -11.53, -12.29, -11.88, -10.99, -8.59, -6.2, -6.4, -6.08, -5.45, -4.1, -1.55, 0.0, 1.55, 1.83, 6.2, 6.2, 5.4, 5.4, 5.6, 5.2, 0.0, -2.19, -6.97, -7.9, -2.6, 1.84, 7.9, 9.3, -0.0, -0.0, 11.62, 11.18, 11.84, 12.72, 12.79, 11.52, 12.57, 9.39, 0.0, -10.43, -12.79, -11.2, -12.72, -11.53, -11.53, -9.8, -12.39, -12.39, -13.86, -13.41, -12.96, -12.52, -13.41, -15.2, -15.65, -16.09, -16.99, -16.99, -15.65, -14.47, -15.34, -17.53, -18.08, -15.87, -15.65, -15.2, -14.6, -14.16, -12.72, -11.92, -13.75, -15.27, -13.48, -12.9, -13.68, -15.24, -16.87, -16.23, -15.74, -13.92, -13.46, -13.1, -11.38, 0.0, 5.15, 2.2, 0.0, 0.0, 4.1, -14.55, -14.55, -14.7, -14.3, -14.3, -14.3, -13.39, -12.52, -11.7, -12.36, -12.82, -12.62, -13.99, -9.48, -7.79, -7.54, -7.79, -5.28, 0.0, 4.65, 6.94, 6.94, 9.17, 11.09, 9.48, 8.85, 6.95, 7.59, 5.4, 0.0, 0.0, 3.82, 10.41, 9.66, 7.9, 5.98, 6.44, 8.93, 11.28, 8.94, 10.41, 9.62, 9.62, 10.3, 9.16, 7.95, 9.35, 6.31, 0.0, -10.75, -13.19, -12.3, -12.72, -12.39, -12.39, -13.86, -13.86, -12.96, -12.52, -12.52, -12.52, -15.2, -15.2, -15.65, -16.09, -16.99, -17.43, -15.78, -14.47, -13.19, -15.78, -16.31, -16.54, -15.65, -14.75, -14.3, -13.72, -12.46, -12.74, -14.75, -16.05, -13.99, -12.13, -11.8, -12.87, -13.59, -13.12, -11.7, -9.66, -8.06, -6.43, -2.13, 2.54, 4.24, 1.9, 0.0, 0.0, 2.93, -14.51, -14.55, -14.17, -14.7, -14.3, -13.74, -13.39, -12.52, -11.38, -12.36, -13.51, -13.59, -11.88, -10.23, -9.31, -6.65, -7.13, 0.0, 6.2, 9.17, 8.85, 10.41, 10.79, 11.16, 11.16, 8.53, 6.95, 8.22, 6.0, 2.37, 3.04, 10.12, 12.87, 9.66, 6.97, 4.32, 3.98, 5.72, 9.08, 8.85, 8.53, 8.37, 7.54, 7.14, 6.45, 6.67, 6.0, 5.92, 3.79, -3.79, -13.99, -13.99, -13.57, -13.15, -13.86, -14.3, -13.86, -12.96, -12.52, -12.52, -14.75, -16.54, -17.43, -16.09, -16.09, -16.91, -17.35, -15.78, -13.59, -12.79, -14.31, -15.34, -16.09, -16.09, -15.65, -13.86, -13.28, -12.04, -12.58, -14.31, -16.48, -16.15, -15.11, -12.52, -10.52, -9.48, -9.13, -7.93, -6.4, -4.43, -2.54, 0.0, 1.55, 1.61, 1.61, 1.55, 1.83, 3.96, -14.51, -14.19, -14.55, -14.17, -14.17, -13.74, -13.31, -12.15, -11.7, -12.36, -13.51, -13.13, -12.65, -10.63, -9.39, -6.4, -2.43, 4.52, 10.43, 4.66, 3.79, 7.0, 6.6, 6.44, 9.17, 7.59, 7.27, 6.95, 5.7, 5.6, 4.48, 6.3, 6.95, 6.95, 4.4, 1.91, 3.68, 6.45, 7.14, 7.36, 7.78, 7.36, 7.18, 5.99, 4.58, 5.64, 5.4, 5.6, 4.1, 0.0, -10.43, -15.61, -16.09, -16.09, -16.09, -16.54, -15.36, -12.39, -10.6, -13.01, -16.91, -17.88, -16.54, -16.09, -15.27, -17.35, -18.65, -17.35, -14.75, -11.6, -13.44, -14.75, -16.09, -16.09, -15.2, -13.41, -11.51, -11.61, -13.75, -14.61, -15.97, -17.33, -15.71, -14.4, -12.22, -9.71, -8.43, -7.82, -4.89, -3.25, -1.04, 0.0, 1.25, 1.38, 1.48, 1.58, 1.53, 3.25, -14.51, -14.51, -14.55, -14.17, -14.17, -13.65, -13.31, -12.15, -11.7, -12.71, -13.39, -13.51, -13.02, -11.58, -8.94, -6.1, -1.43, 0.0, 0.0, 0.0, 0.0, 2.43, 2.35, 3.07, 6.0, 5.6, 6.7, 6.01, 4.8, 2.6, 4.15, 5.32, 6.24, 5.98, 3.61, 2.33, 3.67, 5.57, 6.24, 6.48, 6.31, 6.08, 4.81, 4.75, 4.8, 5.45, 6.7, 7.82, 4.81, 0.0, -6.4, -14.79, -18.78, -20.12, -19.22, -19.22, -16.74, -15.02, -9.66, -11.53, -15.99, -12.96, -17.43, -16.09, -15.27, -15.99, -21.68, -22.36, -19.73, -16.66, -14.47, -13.86, -14.75, -15.2, -12.96, -11.62, -11.46, -14.55, -15.04, -15.04, -15.93, -15.97, -16.48, -15.99, -15.02, -13.59, -9.67, -7.82, -6.1, -4.74, -2.06, -0.97, 0.0, 0.0, 1.25, 1.43, 1.63, 1.58, -14.78, -14.51, -14.19, -14.55, -14.55, -13.65, -13.31, -12.48, -11.7, -12.36, -13.39, -13.02, -13.02, -12.36, -10.59, -8.33, -4.95, -1.34, 0.0, 0.0, 0.0, 0.0, 0.0, 0.0, 1.77, 3.81, 4.24, 6.67, 6.7, 4.4, 3.53, 5.54, 5.54, 5.0, 3.92, 3.39, 3.67, 4.62, 5.35, 4.81, 4.81, 3.97, 3.82, 3.11, 3.82, 6.44, 9.08, 8.53, 9.17, 6.0, 2.45, -3.25, -12.79, 0.0, 16.99, 12.96, 0.0, -16.12, -9.66, -2.93, 11.38, 16.54, 17.43, 7.2, 0.0, 0.0, -12.4, -22.39, -24.11, -25.03, -22.35, -21.01, -14.3, -11.62, -9.83, -11.62, -14.75, -15.87, -15.87, -16.31, -15.93, -16.37, -15.71, -16.05, -15.19, -14.26, -13.91, -10.73, -7.2, -4.89, -3.65, -2.08, -1.01, 0.0, 0.0, 0.0, 0.0, 0.0, -14.78, -14.51, -14.88, -14.55, -14.06, -14.06, -13.31, -12.48, -12.52, -12.71, -12.87, -13.02, -13.02, -12.87, -11.7, -10.46, -7.8, -5.81, -3.16, -1.73, 0.0, 0.0, 0.0, 0.0, 0.0, 0.0, 2.15, 2.89, 6.2, 9.17, 5.95, 4.8, 4.15, 4.05, 3.61, 3.39, 3.82, 4.6, 3.82, 3.08, 1.92, 1.84, 1.52, 3.25, 5.06, 7.27, 7.21, 7.9, 8.22, 8.85, 8.85, 6.7, 8.53, 11.71, 11.2, 10.41, 7.0, 0.0, -21.46, 4.38, 13.86, 15.34, 14.79, 12.01, 11.7, 9.92, 6.47, 0.0, -11.9, -20.39, -23.69, -22.35, -18.33, -10.28, -11.62, -14.75, -16.54, -17.1, -16.76, -16.76, -16.76, -15.9, -15.18, -14.84, -14.3, -14.03, -13.58, -13.92, -11.48, -9.17, -6.4, -4.32, -3.68, -2.72, -1.33, 0.0, 0.0, 0.0, -14.78, -14.78, -14.88, -14.88, -14.06, -14.41, -13.65, -13.31, -12.52, -12.24, -12.46, -12.65, -13.01, -12.46, -11.7, -11.04, -9.36, -7.21, -5.01, -1.88, -1.83, -2.0, -1.94, -1.94, -1.94, -1.94, -2.5, -3.58, 0.0, 0.0, 12.52, 7.27, 5.0, 3.82, 3.25, 4.6, 5.95, 5.21, 4.4, 1.93, 1.02, 1.52, 1.62, 5.06, 6.95, 7.87, 8.43, 8.82, 8.58, 7.9, 8.22, 7.9, 8.58, 7.51, 7.87, 6.44, 4.32, 0.0, 0.0, 12.33, 12.14, 11.6, 10.82, 10.12, 10.43, 10.75, 9.92, 7.6, 3.9, -4.88, -16.45, -21.04, -20.56, -12.52, -13.15, -16.22, -17.43, -17.88, -16.99, -16.99, -17.2, -16.12, -15.04, -12.56, -11.6, -13.59, -12.37, -13.1, -12.22, -10.76, -9.87, -7.11, -6.4, -5.6, -3.25, -1.61, 0.0, 0.0, -14.78, -14.78, -14.88, -14.42, -14.42, -14.41, -14.06, -13.65, -12.52, -12.24, -12.46, -13.01, -12.57, -12.92, -12.01, -11.29, -10.0, -7.8, -5.14, -3.42, -1.93, -1.88, -2.05, -3.9, -3.79, -5.49, -6.8, -9.12, -14.42, -14.75, 0.0, 10.79, 5.29, 3.98, 3.82, 5.46, 5.45, 4.6, 2.95, 1.69, 1.16, 3.7, 5.29, 6.95, 6.95, 8.05, 8.43, 8.03, 7.27, 8.23, 7.9, 8.22, 8.22, 7.59, 5.63, 3.65, 2.02, 0.0, 2.09, 7.76, 7.95, 7.44, 6.45, 6.21, 6.21, 6.67, 7.19, 9.12, 5.98, 0.0, -12.87, -18.78, -5.94, -0.0, -10.75, -17.02, -18.85, -18.78, -18.33, -18.33, -18.33, -18.08, -16.12, -14.18, -11.09, -9.7, -11.64, -11.26, -11.26, -11.28, -11.06, -9.17, -7.54, -6.65, -5.11, -2.93, -1.55, -1.55, -15.03, -14.78, -15.16, -14.42, -14.42, -14.41, -14.41, -13.65, -12.85, -12.57, -12.46, -12.57, -13.06, -13.06, -12.01, -11.19, -9.42, -8.47, -6.47, -5.01, -3.42, -3.69, -3.69, -3.59, -5.09, -6.54, -9.35, -13.39, -13.8, -14.39, 0.0, 8.85, 8.1, 5.4, 4.6, 5.21, 5.46, 5.52, 3.82, 3.65, 4.4, 6.32, 7.27, 6.87, 7.68, 7.68, 8.03, 7.27, 6.42, 6.42, 7.27, 6.7, 6.98, 6.7, 5.52, 4.6, 3.25, 3.39, 4.75, 6.43, 7.28, 5.54, 4.23, 4.8, 2.95, 2.49, 4.32, 5.2, 2.72, 0.0, -12.15, -12.96, 10.73, 18.79, 12.64, -15.62, -17.85, -19.29, -19.67, -18.78, -17.64, -17.2, -16.33, -14.75, -13.75, -10.68, -9.27, -10.79, -11.64, -10.65, -11.33, -10.3, -9.62, -8.3, -6.0, -5.4, -4.93, -4.93, -15.03, -14.78, -15.16, -14.73, -14.42, -14.41, -14.41, -13.65, -12.85, -12.57, -12.29, -12.57, -13.06, -12.45, -12.01, -9.92, -10.46, -8.47, -6.31, -4.75, -4.75, -5.37, -5.23, -3.49, -3.16, -6.54, -12.56, -13.97, -14.79, -11.38, 0.0, 9.49, 7.93, 5.2, 4.23, 5.29, 5.06, 4.6, 4.4, 4.4, 6.95, 7.87, 7.87, 7.27, 7.27, 8.03, 6.7, 5.7, 5.7, 5.7, 6.42, 6.42, 6.42, 6.42, 6.42, 5.29, 4.6, 4.8, 6.2, 5.54, 5.99, 4.58, 2.95, 2.95, 1.52, 1.09, 1.16, 0.0, 0.0, 0.0, 0.0, 7.3, 17.59, 20.36, 16.19, 0.0, -17.35, -18.41, -19.67, -18.78, -17.2, -17.19, -17.19, -13.01, -12.33, -10.87, -9.96, -9.96, -10.3, -11.9, -11.9, -10.79, -10.09, -9.27, -8.94, -8.1, -7.82, -7.82, -15.03, -15.03, -14.78, -14.37, -14.42, -14.06, -14.91, -14.17, -13.74, -12.9, -12.29, -13.06, -13.23, -13.59, -11.7, -13.28, -10.76, -9.92, -6.54, -5.98, -6.14, -8.47, -9.61, -4.67, 0.0, -3.9, -11.6, -13.59, -12.52, -4.38, 5.31, 6.4, 5.28, 3.32, 3.07, 3.39, 1.69, 1.76, 1.84, 4.8, 4.4, 5.7, 6.71, 5.75, 5.98, 4.8, 4.8, 4.05, 4.05, 5.7, 7.27, 8.03, 8.03, 7.27, 8.03, 6.42, 5.7, 6.2, 5.99, 5.77, 4.08, 2.82, 1.39, 0.98, 0.0, 0.0, 0.0, 0.0, 0.0, 0.0, 4.34, 9.63, 12.48, 13.64, 8.2, 5.23, -12.33, -16.54, -16.99, -17.43, -16.33, -16.76, -16.05, -15.71, -15.61, -14.79, -14.36, -12.36, -10.99, -10.3, -11.9, -11.16, -11.99, -10.41, -10.82, -10.12, -9.8, -9.8, -15.03, -15.03, -15.03, -14.37, -14.42, -14.55, -14.55, -14.17, -13.74, -13.49, -13.26, -13.06, -13.23, -13.59, -12.78, -10.76, -11.7, -11.06, -9.42, -5.81, -8.65, -12.01, -13.26, -6.47, 0.0, 3.07, 0.0, 0.0, 0.0, 4.1, 5.6, 3.44, 1.71, 1.71, 1.64, 1.76, 1.76, 0.0, 0.0, 1.14, 2.33, 3.08, 3.21, 2.94, 2.94, 3.19, 2.82, 2.82, 4.6, 6.14, 8.43, 8.82, 9.2, 8.73, 6.95, 6.4, 7.15, 6.59, 5.21, 4.08, 2.71, 1.33, 0.0, 0.0, 0.0, 0.0, 0.0, 1.58, 4.24, 4.24, 5.65, 7.57, 9.28, 6.4, 2.09, 0.0, -3.01, -18.39, -17.43, -16.76, -15.27, -16.37, -16.86, -16.41, -16.05, -14.65, -12.42, -9.96, -10.65, -9.62, -9.48, -10.82, -13.59, -13.15, -10.82, -10.75, -10.43, -10.43, -15.03, -15.03, -15.03, -14.78, -14.51, -14.19, -14.17, -14.17, -13.74, -13.84, -13.26, -13.06, -13.23, -13.59, -13.59, -12.01, -10.76, -11.06, -8.57, -7.6, -6.87, -7.0, -5.09, 0.0, 2.28, 3.9, 5.81, 5.46, 5.11, 3.32, 3.19, 1.64, 1.64, 1.64, 1.64, 1.84, 1.84, 0.0, 0.0, 0.0, 0.0, 1.11, 1.11, 1.09, 1.05, 1.71, 1.39, 2.82, 5.29, 8.23, 9.13, 8.82, 9.2, 9.58, 8.38, 7.81, 7.36, 7.42, 5.77, 3.07, 0.0, 0.0, 0.0, 0.0, -1.02, 0.0, 2.95, 7.85, 8.44, 7.34, 7.0, 6.26, 3.82, 0.0, -3.86, -6.12, -11.27, -18.6, -21.25, -16.79, -17.1, -16.09, -14.75, -13.41, -13.75, -12.89, -12.89, -11.64, -10.91, -8.53, -8.85, -9.48, -12.65, -12.72, -11.88, -10.43, -10.43, -10.43, -14.85, -15.03, -15.03, -14.78, -14.51, -14.19, -14.33, -14.7, -14.3, -13.49, -13.26, -13.06, -13.76, -13.59, -13.59, -12.01, -12.01, -9.66, -8.93, -7.4, -3.49, 0.0, 0.0, 2.15, 2.0, 2.05, 3.9, 3.69, 1.96, 1.83, 1.71, 1.64, 1.64, 1.64, 1.91, 1.84, 1.64, 0.0, 0.0, 0.0, 0.0, 0.0, 0.0, 1.2, 1.11, 1.92, 1.52, 3.11, 8.23, 9.55, 9.55, 9.2, 9.2, 9.58, 9.2, 8.73, 9.3, 8.85, 5.77, 2.95, 0.0, 0.0, -1.11, -1.11, -1.11, 2.71, 8.82, 10.04, 10.79, 10.43, 8.68, 7.92, 6.81, 0.0, -8.94, -8.85, -10.19, -10.41, -9.6, -5.1, -5.8, -16.05, -16.09, -15.2, -14.3, -13.31, -12.89, -13.15, -13.19, -9.82, -8.53, -8.59, -8.94, -12.27, -13.28, -11.44, -8.85, -8.85, -14.85, -14.85, -14.64, -14.78, -14.51, -14.67, -14.33, -14.33, -13.95, -14.1, -13.26, -13.06, -13.76, -13.76, -14.13, -12.78, -11.19, -10.89, -9.17, -7.6, -3.24, 0.0, 0.0, 0.0, 0.0, 0.0, 0.0, 0.0, 0.0, 0.0, 0.0, 1.83, 1.98, 1.91, 1.91, 1.91, 1.64, 1.64, 1.64, 0.0, 0.0, 0.0, 1.28, 1.28, 2.52, 3.21, 3.39, 5.63, 8.4, 10.08, 9.55, 9.2, 9.2, 9.58, 9.2, 9.2, 9.09, 9.17, 7.19, 4.2, 1.16, 0.0, -1.44, -1.44, 1.58, 7.9, 10.4, 10.0, 9.67, 9.5, 7.13, 6.64, 0.0, -12.39, -9.39, -9.54, -10.79, -8.43, -4.12, 0.0, 0.0, 0.0, -14.84, -15.65, -14.75, -13.75, -13.44, -13.15, -13.97, -16.44, -13.2, -10.12, -7.93, -8.94, -11.44, -11.44, -8.58, -8.58, -14.85, -14.85, -14.64, -14.64, -14.95, -14.67, -14.67, -14.33, -13.95, -14.1, -13.26, -13.55, -13.76, -13.76, -14.13, -13.41, -12.01, -10.89, -9.92, -8.25, -6.9, -3.24, -1.73, -1.68, 0.0, 0.0, 0.0, 0.0, 0.0, 0.0, 0.0, 2.28, 2.13, 2.06, 1.91, 1.84, 1.58, 1.58, 1.64, 1.44, 1.44, 1.44, 1.44, 2.82, 2.82, 3.92, 5.6, 8.94, 9.96, 10.96, 10.79, 10.38, 9.2, 9.96, 9.55, 8.82, 8.55, 9.27, 9.17, 7.26, 3.52, 1.33, 1.58, 3.68, 8.59, 11.21, 10.99, 11.2, 9.3, 7.9, 4.4, 0.0, 0.0, -16.9, -13.76, -13.41, -13.41, -11.6, -6.6, -3.69, 0.0, 2.87, 0.0, -15.69, -16.99, -16.54, -16.37, -16.76, -17.81, -16.96, -15.19, -11.16, -9.8, -7.13, -7.36, -8.58, -8.31, -8.31, -14.85, -14.85, -14.64, -14.64, -14.81, -14.57, -14.67, -14.85, -14.51, -14.1, -13.92, -13.55, -14.18, -13.76, -13.76, -13.41, -13.06, -11.7, -10.89, -9.92, -9.0, -7.6, -5.23, -3.9, -1.89, -2.09, 0.0, 0.0, 0.0, 0.0, 0.0, 2.35, 2.2, 2.13, 2.06, 1.91, 1.58, 1.58, 1.58, 1.64, 1.44, 1.44, 2.71, 3.92, 3.92, 2.95, 5.2, 8.38, 9.21, 9.54, 10.47, 11.62, 9.96, 9.96, 9.55, 8.82, 8.23, 7.68, 9.3, 8.85, 6.2, 4.66, 4.88, 7.59, 9.86, 11.21, 10.99, 10.35, 9.53, 4.58, 0.0, -1.94, -9.8, -23.06, -23.77, -20.16, -17.88, -14.84, -12.79, -6.0, 0.0, 7.2, 11.27, 11.16, -8.6, -18.33, -18.78, -18.52, -17.2, -14.84, -16.76, -14.18, -11.9, -10.43, -6.9, -8.31, -8.31, -8.31, -14.46, -14.46, -14.46, -15.01, -14.81, -14.57, -14.29, -14.47, -14.51, -14.1, -14.33, -13.92, -14.18, -14.18, -14.18, -13.06, -13.06, -13.06, -10.89, -10.76, -9.87, -9.0, -7.6, -5.81, -4.3, -2.15, -2.09, 0.0, 0.0, 0.0, 0.0, 2.72, 2.63, 4.24, 3.96, 3.82, 3.68, 3.07, 3.07, 3.07, 3.07, 3.19, 4.4, 5.54, 4.23, 3.39, 5.2, 9.55, 9.76, 9.77, 11.11, 11.09, 12.27, 11.84, 10.38, 9.2, 8.23, 7.87, 9.2, 9.3, 7.54, 5.99, 5.63, 6.95, 9.48, 10.8, 11.2, 10.73, 8.44, 6.21, 1.5, 0.0, -2.79, -22.9, -25.32, -25.02, -21.61, -17.88, -11.6, 0.0, 13.41, 13.86, 15.77, 16.1, 12.01, -12.33, -16.54, -15.65, -14.75, -15.05, -16.12, -16.05, -14.61, -13.99, -10.82, -8.58, -8.31, -8.31, -14.79, -14.79, -14.79, -15.01, -14.81, -14.57, -14.57, -14.75, -14.13, -14.33, -14.33, -14.33, -14.18, -14.18, -14.18, -13.76, -13.06, -13.06, -12.45, -11.7, -10.76, -10.76, -9.61, -8.21, -4.42, -4.95, -2.5, -2.43, 0.0, 0.0, 2.63, 3.25, 4.81, 4.81, 6.44, 6.44, 6.44, 6.21, 6.21, 7.26, 6.98, 7.26, 7.44, 6.24, 5.1, 3.53, 6.2, 10.28, 9.83, 9.83, 10.73, 11.18, 10.2, 9.89, 10.0, 8.93, 8.58, 9.2, 8.4, 8.55, 6.21, 5.43, 5.54, 7.59, 10.87, 10.16, 10.04, 9.17, 6.87, 4.55, 1.61, 0.0, -1.63, -5.37, -20.12, -22.69, -21.99, -19.29, -11.6, 5.4, 9.97, 12.3, 14.3, 14.53, 15.33, 12.64, 0.0, -15.18, -15.2, -14.6, -14.61, -15.9, -17.26, -15.9, -13.59, -11.17, -10.12, -10.12, -14.79, -14.79, -14.79, -15.01, -14.81, -14.81, -14.99, -14.75, -14.47, -14.67, -14.33, -14.33, -14.91, -14.57, -14.57, -14.18, -13.76, -13.06, -12.45, -12.45, -11.7, -10.76, -9.61, -7.98, -7.2, -4.95, -2.98, -3.69, 0.0, 0.0, 4.38, 6.2, 6.0, 7.78, 6.44, 6.44, 7.82, 7.82, 7.54, 7.54, 7.26, 8.22, 7.9, 6.58, 5.46, 2.6, 10.28, 10.28, 9.83, 10.28, 11.18, 10.65, 10.62, 9.75, 8.93, 9.08, 8.94, 9.6, 9.2, 8.55, 6.2, 5.0, 5.43, 8.53, 9.67, 10.19, 8.83, 6.63, 3.82, 1.43, 0.0, 0.0, -1.48, -3.36, -2.98, 0.0, 0.0, -13.59, -7.69, 3.14, 8.53, 11.03, 13.23, 12.52, 11.99, 13.8, 11.06, 4.95, -13.02, -14.47, -14.55, -15.27, -16.31, -16.82, -15.9, -13.99, -13.03, -13.03, -14.79, -14.79, -14.79, -14.62, -14.81, -14.81, -14.99, -14.75, -14.47, -14.67, -14.33, -14.33, -14.91, -14.91, -14.57, -14.18, -13.76, -13.76, -13.23, -12.45, -11.7, -11.38, -10.47, -8.93, -7.0, -9.39, -6.8, -4.81, 0.0, 0.0, 6.4, 7.69, 7.69, 8.05, 7.78, 8.85, 8.85, 8.85, 8.53, 8.53, 8.22, 7.26, 6.98, 8.53, 8.53, 6.17, 8.4, 9.74, 10.28, 10.28, 11.09, 10.62, 9.89, 9.2, 8.38, 8.38, 10.8, 10.4, 8.93, 7.9, 6.2, 5.54, 7.02, 9.5, 9.53, 9.76, 9.13, 6.08, 2.52, 0.0, -1.53, -3.2, -1.53, -1.48, 0.0, 3.01, 13.14, 19.22, -0.0, -0.0, 7.51, 9.75, 12.35, 12.07, 12.71, 10.73, 10.73, 9.66, 0.0, -4.81, -13.39, -14.13, -14.79, -16.09, -16.82, -16.33, -14.79, -14.79, -14.79, -14.79, -14.79, -14.62, -14.81, -14.81, -14.99, -14.75, -14.47, -14.67, -14.67, -14.33, -14.91, -14.91, -14.57, -14.18, -13.76, -13.76, -13.23, -12.87, -12.87, -12.22, -11.06, -11.06, -11.06, -10.75, -10.75, -10.75, -10.43, 0.0, 10.12, 12.79, 9.8, 9.48, 9.17, 8.85, 10.01, 8.85, 8.53, 8.53, 8.53, 8.22, 7.26, 6.7, 7.9, 6.97, 10.0, 10.28, 10.28, 11.09, 10.75, 9.2, 9.2, 8.55, 8.38, 8.38, 7.68, 7.9, 9.08, 7.9, 6.7, 5.54, 7.02, 8.22, 7.85, 8.15, 8.73, 7.93, 4.4, 0.0, -2.95, -1.9, 0.0, 0.0, 0.0, 0.0, 6.22, 13.95, 17.39, 4.88, 5.1, 12.27, 12.71, 12.52, 11.62, 12.79, 9.8, 6.4, 4.81, 5.09, 0.0, 0.0, -4.95, -16.99, -16.99, -17.26, -16.54, -16.54, -14.79, -14.79, -14.79, -14.62, -14.42, -14.81, -14.99, -14.75, -14.09, -14.56, -14.67, -14.67, -14.91, -14.91, -14.57, -14.18, -13.39, -13.76, -13.76, -13.23, -12.87, -11.88, -12.02, -11.06, -11.87, -10.75, -10.43, -8.18, -12.79, 0.0, 14.75, 14.3, 10.12, 9.8, 9.48, 9.17, 8.85, 8.85, 8.85, 8.53, 7.24, 7.24, 6.97, 6.71, 7.59, 9.66, 11.21, 10.41, 9.89, 10.6, 10.18, 9.2, 8.55, 8.93, 8.38, 8.38, 8.03, 8.22, 7.59, 7.9, 6.98, 5.77, 7.02, 6.16, 5.4, 5.77, 6.45, 4.81, 5.4, 2.49, 0.0, 2.19, 4.95, 2.83, 0.0, 0.0, 7.4, 14.47, 16.05, 10.91, 5.31, -0.0, 13.99, 14.3, 13.86, 13.57, 10.12, 5.31, 2.35, 2.43, 2.43, 2.43, 0.0, 0.0, -16.09, -16.09, -16.76, -16.76, -14.39, -14.39, -14.79, -14.62, -14.62, -14.42, -14.59, -14.36, -14.36, -14.56, -14.29, -14.67, -14.67, -14.91, -14.91, -14.18, -13.39, -13.39, -13.76, -13.39, -12.52, -13.27, -12.73, -11.68, -12.65, -11.87, -10.43, -5.31, -4.95, 0.0, 14.3, 14.3, 12.79, 9.8, 9.8, 9.48, 9.17, 9.17, 8.85, 8.85, 8.53, 7.24, 6.97, 5.2, 6.71, 8.94, 10.38, 10.18, 10.18, 10.6, 9.6, 9.2, 8.93, 8.93, 8.55, 7.27, 7.9, 7.9, 6.7, 6.42, 7.54, 5.77, 5.2, 5.0, 5.2, 4.4, 2.82, 2.28, 3.04, 2.37, 4.6, 5.95, 5.15, 3.09, 0.0, 0.0, 10.12, 11.28, 12.39, 10.73, -0.0, -5.65, -12.01, 0.0, 15.65, 14.39, 8.68, 2.89, 0.0, 0.0, 0.0, 0.0, 0.0, 0.0, -16.09, -15.65, -16.09, -16.09, -14.39, -14.39, -14.39, -14.62, -14.62, -14.42, -14.59, -14.36, -14.36, -14.09, -14.56, -14.29, -14.67, -14.33, -14.91, -14.18, -14.18, -13.39, -13.39, -13.39, -13.02, -13.27, -12.37, -12.37, -12.65, -11.52, -7.59, -2.35, 0.0, 0.0, 13.41, 13.86, 9.8, 9.8, 6.2, 9.8, 9.48, 9.48, 7.19, 6.94, 6.94, 5.6, 5.4, 4.32, 5.0, 7.9, 10.84, 10.58, 10.58, 10.18, 9.2, 9.2, 9.3, 8.93, 8.55, 8.24, 8.24, 7.59, 7.27, 7.59, 6.87, 5.32, 5.98, 5.32, 5.54, 4.4, 2.95, 1.69, 0.0, 2.54, 5.4, 5.0, 4.08, 0.0, 0.0, 0.0, 10.17, 13.99, 8.31, 6.6, -0.0, -9.42, -14.88, -17.88, 0.0, 0.0, 5.09, 0.0, -2.35, -2.63, -3.14, -3.25, 0.0, 0.0, 0.0, -15.2, -15.2, -15.2, -14.39, -14.39, -14.39, -14.22, -14.62, -14.42, -14.59, -14.59, -14.36, -14.09, -14.09, -14.29, -14.29, -14.33, -14.52, -14.52, -13.8, -13.8, -13.39, -13.02, -13.02, -12.89, -12.89, -12.37, -11.33, -11.52, -7.36, -2.81, 0.0, 4.52, 9.48, 0.0, 0.0, 0.0, 9.8, 6.2, 9.8, 9.8, 9.48, 7.19, 7.19, 7.51, 5.6, 2.37, 2.82, 5.0, 11.18, 10.73, 10.58, 10.18, 9.6, 10.0, 8.93, 8.55, 8.55, 8.55, 7.9, 7.56, 7.27, 7.59, 7.51, 6.71, 7.9, 5.75, 5.7, 4.8, 4.8, 3.39, 2.28, 2.45, 4.39, 3.96, 2.06, 0.0, 0.0, 0.0, 3.1, 19.22, 4.23, 4.23, -0.0, -9.42, -15.19, -16.99, -16.99, 0.0, 0.0, -2.98, -4.52, -4.98, -4.65, -6.94, -3.96, -4.24, 0.0, -6.6, -15.2, -15.2, -14.54, -14.54, -14.39, -14.22, -14.22, -14.42, -14.59, -14.59, -14.36, -14.36, -14.09, -14.56, -14.29, -14.67, -13.95, -14.52, -13.8, -13.8, -13.8, -13.39, -13.02, -12.65, -12.89, -12.89, -12.0, -11.52, -8.58, -6.4, 0.0, 0.0, 0.0, 0.0, 0.0, 0.0, 0.0, 9.8, 9.8, 9.8, 9.48, 7.44, 9.48, 7.78, 6.44, 1.98, 0.0, 5.2, 11.18, 11.18, 11.18, 10.18, 9.6, 10.0, 9.6, 8.55, 8.93, 8.55, 7.56, 7.56, 7.56, 7.27, 6.3, 8.22, 6.44, 5.75, 5.75, 4.15, 4.8, 4.4, 3.07, 3.32, 3.04, 2.28, 2.35, 1.42, 0.0, 0.0, 1.86, 0.0, -0.0, -0.0, -0.0, -9.42, -13.02, -14.75, -15.65, -14.75, -8.18, -7.59, -6.9, -6.44, -4.65, -5.6, -6.94, -8.85, -4.1, -4.1, -6.6, -6.6, -14.14, -14.14, -14.39, -14.22, -14.22, -14.03, -14.18, -14.59, -14.36, -14.36, -14.09, -14.09, -14.29, -14.29, -14.29, -13.95, -14.13, -13.8, -13.8, -13.8, -13.02, -12.65, -12.65, -12.51, -12.0, -11.52, -10.12, -10.12, -7.93, -6.4, -10.12, 0.0, 0.0, 0.0, 0.0, 9.48, 9.48, 11.99, 9.48, 9.48, 9.48, 9.17, 6.67, 2.45, 0.0, 5.4, 11.62, 11.62, 11.18, 10.6, 9.6, 9.6, 9.6, 8.93, 8.55, 8.18, 8.18, 7.56, 7.56, 7.27, 7.27, 5.72, 5.52, 4.05, 4.05, 3.53, 4.05, 2.6, 2.71, 1.58, 2.54, 3.56, 2.21, 3.04, 1.47, 0.0, 0.0, -2.78, -21.46, -5.31, -4.88, -9.17, -12.79, -11.6, -13.01, -12.96, -10.37, -8.85, -6.44, -5.8, -4.1, -4.81, -7.78, -10.79, -10.41, -9.17, -4.38, -4.38, -13.99, -13.99, -14.39, -14.39, -14.22, -14.03, -14.18, -14.18, -13.91, -14.36, -14.09, -14.09, -14.09, -13.76, -14.29, -13.95, -13.58, -13.18, -13.8, -13.8, -13.42, -12.65, -12.65, -11.8, -12.0, -12.27, -11.17, -11.44, -11.9, -10.12, -10.12, -10.12, 0.0, 0.0, 0.0, 0.0, 9.48, 11.99, 11.99, 11.16, 11.16, 10.37, 8.85, 7.19, 6.2, 8.53, 12.07, 11.62, 11.62, 10.6, 10.0, 9.6, 9.6, 8.93, 8.18, 8.18, 8.18, 7.21, 6.95, 6.95, 6.95, 6.01, 5.29, 3.87, 4.23, 3.53, 2.7, 1.45, 1.33, 1.33, 1.64, 3.56, 2.57, 2.33, 1.74, 0.0, -1.25, -4.67, -22.35, -5.42, -10.91, -12.33, -12.16, -12.04, -11.84, -12.96, -12.45, -9.17, -5.8, -5.8, -3.56, -4.24, -6.9, -11.99, -12.58, -12.3, -9.48, -7.44, -13.99, -13.99, -13.99, -14.39, -14.22, -14.03, -14.03, -13.8, -13.91, -13.91, -13.6, -13.23, -13.71, -13.39, -13.76, -13.9, -13.58, -13.58, -13.18, -13.18, -12.82, -12.82, -12.65, -12.27, -12.51, -11.64, -11.17, -11.44, -11.44, -11.9, -12.79, -12.79, -10.12, 0.0, 0.0, 0.0, 13.41, 9.48, 11.99, 12.72, 11.16, 11.6, 10.01, 10.37, 8.94, 10.8, 11.91, 12.07, 11.51, 10.6, 10.0, 9.6, 9.2, 8.55, 8.18, 8.18, 7.81, 7.21, 6.64, 6.95, 6.95, 6.64, 6.44, 4.2, 3.87, 2.1, 2.1, 2.82, 2.95, 3.07, 3.07, 2.54, 2.43, 1.73, 1.85, 0.0, -2.89, -9.12, -8.8, -4.88, -10.19, -10.75, -12.16, -13.7, -13.67, -13.41, -13.15, -10.82, -7.44, -5.28, -5.28, -3.68, -6.0, -10.73, -13.41, -12.96, -12.72, -9.48, -13.68, -13.68, -13.68, -13.99, -14.22, -14.03, -14.03, -13.8, -13.54, -13.54, -13.54, -13.23, -13.6, -13.76, -13.76, -13.76, -13.76, -13.58, -13.58, -12.82, -12.82, -12.45, -12.45, -11.64, -11.8, -11.64, -11.9, -12.27, -11.44, -12.79, -11.9, -12.79, -10.12, -10.12, 0.0, 0.0, 13.86, 13.41, 11.99, 12.72, 12.72, 12.58, 11.6, 10.35, 10.37, 9.97, 11.45, 11.95, 11.18, 10.6, 10.0, 9.2, 9.2, 8.03, 7.68, 8.18, 7.81, 6.32, 6.64, 6.64, 6.95, 6.01, 4.22, 3.65, 3.82, 3.82, 3.87, 2.82, 2.95, 4.4, 4.4, 1.64, 0.0, 0.0, 2.44, 2.67, -12.42, -13.39, -0.0, -3.36, -7.44, -9.48, -9.48, -11.99, -13.59, -14.3, -14.11, -13.19, -10.12, -7.69, -6.88, -5.46, -6.2, -11.09, -13.41, -13.41, -12.96, -12.72, -13.68, -13.68, -13.68, -13.68, -13.49, -13.27, -13.65, -13.8, -13.8, -13.1, -13.54, -13.6, -13.6, -13.6, -13.76, -13.76, -13.76, -13.01, -13.58, -13.2, -12.45, -12.45, -12.09, -12.09, -12.27, -12.13, -12.42, -11.9, -12.27, -11.44, -11.9, -13.15, -12.79, -10.12, 0.0, 0.0, 0.0, 13.86, 12.39, 12.39, 12.72, 12.3, 12.58, 11.2, 10.01, 11.99, 10.4, 10.6, 10.18, 10.18, 9.2, 8.82, 8.82, 8.03, 7.68, 7.33, 7.33, 6.32, 6.32, 6.64, 6.64, 6.64, 6.44, 5.9, 5.9, 5.29, 3.87, 3.98, 4.6, 5.54, 4.58, 1.64, 0.0, 0.0, 0.0, 4.99, -30.4, -10.13, -0.0, -2.72, -3.58, -6.6, -10.75, -14.39, -15.78, -15.2, -14.55, -13.19, -12.27, -10.12, -7.93, -7.1, -7.69, -11.09, -13.41, -12.3, -12.96, -12.96, -13.68, -13.68, -13.68, -13.68, -13.49, -13.27, -13.65, -13.39, -13.39, -13.1, -13.46, -13.11, -13.6, -13.6, -13.23, -13.23, -13.76, -13.39, -13.01, -12.65, -12.29, -11.87, -11.52, -11.52, -11.64, -12.27, -12.13, -12.42, -11.9, -12.27, -12.79, -11.9, -12.79, -12.79, -9.8, 0.0, 0.0, 10.12, 12.79, 12.39, 13.15, 12.72, 10.79, 11.6, 11.6, 10.37, 10.35, 9.2, 8.82, 8.82, 8.82, 8.43, 8.43, 7.68, 7.33, 7.33, 6.98, 6.32, 6.32, 6.32, 6.64, 6.32, 5.44, 5.9, 5.9, 6.95, 7.27, 6.17, 5.7, 6.2, 4.58, 1.58, 0.0, -1.77, 0.0, 0.0, 0.0, 31.74, 8.91, -0.0, -3.68, -8.0, -12.96, -16.39, -16.91, -16.54, -14.47, -13.57, -12.27, -10.12, -10.12, -7.93, -8.66, -11.99, -12.3, -12.3, -12.3, -12.3, -13.29, -13.29, -13.68, -13.68, -13.49, -13.27, -13.65, -13.39, -13.39, -13.1, -13.46, -13.11, -13.11, -13.6, -13.23, -13.23, -12.87, -12.87, -12.87, -12.29, -12.29, -11.93, -11.93, -11.52, -11.52, -11.64, -11.44, -12.13, -12.42, -11.9, -12.27, -12.79, -11.9, -10.12, -9.8, 0.0, 0.0, 10.12, 10.12, 12.79, 13.15, 12.72, 11.16, 11.6, 11.6, 10.37, 10.01, 9.97, 9.2, 8.82, 8.43, 8.43, 8.05, 7.33, 7.33, 6.98, 6.98, 6.01, 6.01, 6.32, 6.32, 6.32, 5.72, 6.44, 5.9, 6.95, 5.29, 7.59, 6.58, 5.0, 3.07, 0.0, 0.0, 0.0, 0.0, 0.0, 3.88, 6.81, 12.15, 19.28, -0.0, -10.8, -17.07, -18.23, -19.67, -16.48, -14.53, -12.65, -12.79, -11.9, -9.8, -8.66, -7.13, -13.41, -12.3, -12.3, -12.3, -12.3, -13.29, -13.29, -13.29, -13.68, -13.49, -13.49, -13.27, -13.27, -12.98, -12.65, -12.65, -12.76, -13.11, -12.76, -12.36, -12.87, -12.87, -12.52, -12.52, -11.76, -11.42, -11.42, -11.42, -11.42, -11.52, -11.17, -11.29, -11.44, -11.64, -11.64, -11.9, -12.27, -11.44, -11.9, -10.12, -6.4, 0.0, 0.0, 6.4, 10.12, 9.8, 11.53, 11.16, 10.79, 10.37, 10.01, 10.01, 10.35, 9.97, 9.58, 8.82, 8.43, 7.87, 6.64, 7.33, 6.63, 6.63, 6.28, 5.69, 6.01, 6.01, 6.32, 5.72, 6.01, 7.59, 5.9, 5.06, 3.7, 5.1, 2.95, 2.28, 1.45, 0.0, 0.0, 0.0, 1.58, 3.16, 4.82, 7.79, 9.8, 6.94, -25.59, -18.33, -21.19, -20.12, -17.35, -15.19, -12.87, -11.87, -10.82, -10.12, -7.51, -7.19, -11.6, -12.96, -11.87, -11.87, -11.87, -13.29, -13.29, -13.29, -13.29, -13.49, -13.1, -13.27, -12.89, -12.62, -12.98, -12.65, -12.65, -12.29, -12.76, -12.76, -12.02, -12.02, -12.52, -12.16, -12.16, -11.76, -11.42, -11.42, -11.42, -11.07, -10.63, -11.17, -11.29, -11.44, -11.64, -10.99, -11.17, -10.12, -10.12, -7.93, -6.4, 0.0, 0.0, 6.4, 6.4, 9.8, 11.16, 11.16, 10.79, 10.37, 10.01, 9.66, 10.35, 9.97, 9.97, 9.58, 9.2, 8.23, 6.95, 6.95, 6.98, 6.98, 6.63, 5.69, 5.69, 6.01, 6.01, 6.32, 6.64, 5.82, 5.29, 3.65, 2.46, 2.7, 2.82, 1.45, 1.52, 2.82, 1.55, 1.48, 3.01, 2.98, 2.88, 3.2, 5.06, 7.32, 0.0, -27.14, -20.39, -20.38, -19.22, -15.25, -12.33, -9.39, -8.18, -7.44, -5.4, -3.04, -5.6, -11.2, -12.07, -12.07, -12.07, -13.29, -13.29, -13.29, -13.29, -12.76, -12.76, -12.52, -12.89, -12.62, -12.62, -12.3, -12.3, -11.94, -11.94, -11.94, -12.02, -12.02, -11.68, -11.68, -11.68, -11.25, -10.92, -11.07, -11.07, -11.07, -11.07, -10.63, -11.17, -11.29, -11.44, -10.86, -10.99, -10.12, -10.12, -8.58, -7.93, 0.0, 0.0, 4.52, 4.38, 7.69, 7.44, 9.48, 9.17, 9.17, 10.01, 8.53, 8.53, 9.08, 9.97, 9.58, 9.2, 9.2, 7.27, 6.95, 7.68, 6.98, 6.63, 6.28, 5.69, 5.69, 6.01, 6.01, 6.32, 5.82, 5.06, 3.49, 3.49, 3.65, 3.87, 2.82, 2.71, 2.82, 2.72, 1.43, 1.48, 1.42, 1.51, 2.88, 4.35, 4.94, 3.22, -25.99, -23.59, -20.79, -20.12, -16.96, -11.06, -8.85, -2.54, -2.45, -3.04, -2.93, -2.93, -6.7, -11.45, -11.45, -11.45, -12.97, -12.97, -12.97, -12.59, -12.76, -12.76, -12.52, -12.52, -12.26, -12.62, -12.3, -12.3, -11.94, -11.94, -11.94, -11.2, -11.68, -11.68, -11.68, -11.68, -11.33, -10.92, -10.58, -10.58, -10.58, -10.58, -10.12, -10.63, -10.69, -10.69, -10.77, -10.12, -10.12, -8.94, -7.36, -6.4, -3.47, 0.0, 0.0, 3.36, 6.0, 6.0, 7.78, 9.17, 9.17, 7.51, 8.53, 8.53, 8.22, 9.08, 9.58, 9.58, 9.2, 7.59, 7.27, 6.95, 6.64, 6.32, 6.01, 5.69, 5.37, 5.69, 6.01, 6.87, 6.32, 6.17, 5.29, 5.06, 5.06, 3.87, 3.61, 2.6, 2.82, 1.33, 0.0, 0.0, 0.0, 1.42, 2.89, 4.5, 4.35, 3.95, -6.4, -27.32, -21.46, -20.36, -16.99, -10.79, -5.8, -5.6, -3.04, 0.0, 0.0, -2.71, -2.71, -5.95, -5.95, -5.95, -12.59, -12.59, -12.59, -12.59, -12.39, -12.39, -12.16, -12.52, -12.26, -12.26, -11.95, -11.95, -11.54, -11.17, -11.6, -11.6, -11.2, -11.2, -11.2, -10.87, -10.87, -10.12, -10.12, -10.58, -10.58, -10.58, -10.12, -10.12, -10.12, -10.12, -10.12, -9.71, -9.6, -8.57, -7.93, -4.52, -2.81, 0.0, 0.0, 2.63, 2.63, 4.81, 5.8, 7.78, 7.51, 7.51, 7.24, 8.53, 8.22, 9.08, 8.73, 9.58, 9.58, 7.59, 6.42, 6.42, 6.95, 6.64, 6.01, 5.69, 5.69, 5.37, 5.69, 6.01, 6.52, 6.32, 6.3, 5.72, 5.72, 4.88, 3.45, 1.28, 1.39, 0.0, 0.0, 0.0, 1.48, 2.91, 4.11, 4.24, 4.5, 3.24, 0.0, -25.03, -23.77, -19.99, -12.72, -8.55, -9.67, -8.85, -6.7, -2.82, 0.0, 0.0, -2.49, -2.39, -2.39, -2.39, -12.59, -12.59, -12.59, -12.59, -12.39, -12.39, -12.16, -12.16, -11.9, -12.26, -12.26, -11.54, -11.54, -11.17, -11.17, -11.5, -11.2, -11.2, -10.87, -10.87, -10.54, -10.12, -10.12, -10.12, -10.12, -10.12, -10.12, -9.62, -9.62, -9.57, -9.22, -9.8, -9.06, -7.82, -6.4, -5.63, -3.93, 0.0, 0.0, 2.2, 2.2, 4.1, 4.81, 4.65, 6.44, 6.44, 6.21, 6.21, 7.26, 7.26, 9.08, 8.73, 8.73, 7.59, 6.7, 6.42, 6.14, 6.64, 6.32, 6.01, 5.03, 5.37, 5.37, 5.69, 5.69, 6.32, 6.01, 6.58, 5.98, 5.98, 5.1, 2.7, 0.0, 0.0, 0.0, 0.0, 2.81, 4.1, 4.38, 2.89, 2.89, 1.47, 0.0, -10.41, -24.39, -19.08, -14.42, -10.18, -10.18, -10.6, -9.67, -8.22, -3.53, -2.6, -2.49, -2.39, -2.39, -2.39, -12.59, -12.21, -12.21, -12.21, -12.01, -12.01, -11.79, -11.8, -11.52, -11.52, -11.52, -11.2, -11.54, -11.5, -11.5, -11.17, -11.17, -10.43, -10.87, -10.54, -10.54, -10.54, -10.12, -10.12, -10.12, -10.12, -10.12, -9.62, -9.92, -9.34, -9.34, -8.68, -8.46, -7.59, -5.81, -4.52, -3.47, -1.72, 0.0, 0.0, 1.9, 1.83, 4.1, 3.96, 4.65, 6.21, 6.21, 6.21, 7.26, 7.26, 7.26, 9.08, 8.73, 7.59, 6.7, 6.42, 6.14, 5.86, 6.32, 6.32, 5.31, 5.03, 4.75, 4.75, 5.37, 5.06, 5.86, 6.64, 6.95, 6.58, 6.24, 5.32, 4.05, 2.7, 0.0, 1.44, 4.39, 4.1, 2.91, 1.38, 0.0, 0.0, 0.0, -5.37, -17.03, -19.59, -17.43, -11.45, -7.9, -7.9, -10.6, -10.6, -8.22, -6.2, -2.6, -2.39, -2.39, -2.39, -12.21, -12.21, -12.21, -12.21, -12.01, -12.01, -11.79, -11.44, -11.44, -11.52, -11.87, -11.54, -11.88, -11.54, -11.17, -11.17, -10.84, -10.43, -10.12, -10.12, -10.12, -10.12, -9.67, -9.67, -9.67, -9.67, -9.67, -9.44, -9.44, -8.85, -8.85, -8.18, -7.92, -7.06, -5.92, -5.31, -2.72, -1.53, 0.0, 0.0, 0.0, 1.83, 1.77, 3.44, 3.96, 3.82, 5.4, 5.4, 5.4, 6.45, 7.26, 8.22, 8.22, 7.9, 6.7, 6.42, 6.14, 5.86, 5.59, 5.59, 5.31, 5.03, 5.03, 4.75, 5.37, 5.37, 6.64, 6.64, 6.3, 6.01, 5.46, 5.1, 5.32, 5.1, 3.25, 4.4, 5.99, 4.39, 1.43, 0.0, 0.0, 0.0, 0.0, -12.19, -14.26, -20.79, -18.33, -14.75, -10.8, -8.53, -9.67, -12.3, -11.03, -9.67, -4.8, -4.6, -4.6, -4.6, -11.82, -11.82, -11.82, -11.82, -12.01, -12.01, -11.69, -11.44, -11.8, -11.87, -11.87, -11.54, -11.54, -11.54, -11.17, -10.84, -10.84, -10.43, -10.12, -10.12, -10.12, -10.12, -9.67, -9.67, -9.67, -9.97, -9.44, -9.44, -9.44, -8.85, -8.85, -8.18, -7.43, -6.4, -5.5, -4.89, -3.65, -2.72, -1.33, 0.0, 0.0, 1.61, 1.55, 1.77, 3.44, 3.82, 5.4, 5.4, 5.4, 5.4, 6.7, 8.53, 8.22, 7.9, 6.7, 6.42, 6.14, 5.86, 5.59, 5.59, 5.31, 5.03, 4.75, 4.75, 4.75, 5.37, 5.37, 4.75, 4.6, 4.6, 4.05, 4.05, 5.1, 4.6, 5.98, 6.87, 5.77, 3.32, 1.55, 0.0, 0.0, 1.72, 0.0, -9.8, -16.76, -19.59, -16.91, -13.41, -11.45, -9.67, -9.3, -10.6, -10.6, -9.3, -5.95, -4.6, -4.6, -4.6, -11.82, -11.82, -11.82, -11.82, -11.63, -11.69, -11.69, -11.8, -11.8, -11.52, -11.52, -11.54, -11.2, -11.2, -10.84, -10.84, -10.84, -10.84, -10.43, -10.12, -10.43, -10.43, -9.97, -9.97, -9.97, -9.44, -9.73, -9.73, -8.99, -8.4, -8.4, -7.73, -6.78, -6.4, -5.5, -4.38, -3.36, -2.48, -1.21, 0.0, 0.0, 0.0, 1.38, 1.55, 1.55, 3.32, 3.32, 5.4, 4.75, 4.75, 6.7, 7.54, 8.22, 7.9, 5.52, 5.29, 5.06, 4.83, 4.6, 4.6, 4.37, 4.14, 4.75, 4.75, 5.03, 5.69, 4.83, 4.14, 3.82, 3.39, 2.95, 3.77, 3.77, 4.6, 4.4, 3.45, 4.23, 3.19, 1.77, 3.96, 3.96, 7.44, 16.79, -10.8, -19.28, -16.45, -16.05, -12.07, -10.73, -10.84, -9.3, -11.03, -10.4, -7.9, -6.2, -5.46, -5.46, -5.46, -11.53, -11.53, -11.53, -11.53, -11.69, -11.69, -11.69, -11.44, -11.8, -11.52, -11.52, -11.15, -10.81, -11.2, -11.2, -10.84, -10.84, -10.84, -10.43, -10.43, -10.43, -9.97, -9.97, -10.27, -9.73, -9.27, -9.27, -8.99, -8.4, -8.4, -7.73, -7.5, -6.78, -5.99, -5.14, -4.38, -3.36, -2.2, -1.21, 0.0, 0.0, 0.0, 0.0, 0.0, 1.55, 1.5, 3.32, 3.32, 4.75, 4.75, 4.75, 6.7, 8.22, 6.71, 5.52, 4.6, 4.4, 4.83, 4.83, 4.6, 4.37, 4.14, 4.46, 5.03, 5.03, 5.03, 4.37, 3.15, 2.69, 3.39, 2.95, 2.6, 2.6, 3.61, 3.61, 3.61, 1.28, 1.58, 1.64, 3.82, 6.94, 9.16, 11.17, 0.0, -17.17, -17.39, -15.99, -13.88, -11.18, -11.18, -11.03, -10.4, -10.4, -8.22, -7.9, -5.7, -5.7, -5.7, -11.53, -11.53, -11.53, -11.53, -11.32, -11.32, -11.32, -11.44, -11.44, -11.44, -11.17, -10.81, -10.81, -10.81, -10.81, -10.84, -10.84, -11.17, -10.75, -10.75, -10.31, -9.82, -9.82, -9.27, -9.27, -9.27, -9.27, -8.4, -8.4, -8.4, -7.5, -7.5, -6.78, -5.99, -4.97, -4.08, -3.12, -3.25, -2.2, -1.08, 0.0, 0.0, 0.0, 0.0, 0.0, 1.55, 2.93, 3.32, 3.32, 3.32, 4.75, 7.26, 7.9, 5.75, 5.52, 4.6, 4.4, 4.4, 4.83, 4.6, 4.6, 3.8, 3.6, 4.46, 5.03, 4.37, 4.37, 3.15, 2.69, 1.69, 2.82, 2.95, 3.61, 3.45, 3.87, 3.87, 2.7, 1.45, 1.52, 3.19, 7.19, 7.69, 7.76, 13.59, -8.2, -14.26, -15.38, -16.48, -12.58, -11.18, -11.62, -11.62, -10.8, -8.22, -7.9, -7.9, -7.9, -7.9, -11.53, -11.53, -11.53, -11.53, -11.32, -11.32, -11.32, -11.09, -11.09, -11.44, -11.17, -11.15, -10.81, -10.81, -11.14, -10.75, -11.17, -11.17, -10.75, -10.31, -9.82, -9.82, -9.82, -9.27, -8.99, -9.27, -8.4, -8.4, -8.14, -7.5, -7.5, -6.78, -6.78, -5.81, -4.97, -4.08, -3.94, -3.02, -2.2, -1.08, -1.08, 0.0, 0.0, 0.0, 0.0, 0.0, 1.5, 2.93, 2.93, 2.93, 3.32, 5.2, 5.75, 5.75, 3.98, 3.25, 3.11, 3.11, 4.2, 4.0, 4.0, 3.8, 3.6, 3.8, 3.8, 3.8, 4.0, 2.83, 2.83, 1.69, 3.25, 4.05, 3.87, 3.7, 3.7, 3.7, 2.58, 2.58, 1.45, 4.58, 4.93, 5.28, 5.81, 8.97, 16.75, -10.29, -12.61, -15.25, -13.39, -13.15, -11.6, -12.96, -11.6, -11.6, -11.2, -11.2, -11.2, -11.2, -11.16, -11.16, -11.16, -11.53, -11.32, -11.32, -11.32, -11.32, -11.09, -11.44, -11.17, -11.52, -11.15, -11.14, -11.14, -10.75, -10.75, -11.17, -10.75, -10.75, -9.82, -9.53, -9.82, -9.27, -8.99, -8.4, -8.4, -8.14, -7.5, -7.5, -6.4, -6.4, -5.63, -5.46, -4.66, -3.94, -3.94, -3.02, -1.97, -2.13, -1.08, -1.17, 0.0, 0.0, 0.0, 0.0, 1.5, 1.5, 1.5, 2.93, 2.82, 5.0, 5.75, 4.8, 3.39, 3.25, 3.25, 3.11, 2.97, 4.0, 3.8, 3.8, 3.8, 3.8, 3.8, 3.8, 2.83, 2.83, 1.47, 2.46, 2.28, 3.07, 2.82, 2.58, 2.58, 2.58, 2.58, 2.7, 2.82, 4.58, 4.93, 3.68, 4.05, 5.23, 20.39, -6.72, -11.5, -13.91, -12.64, -11.7, -11.38, -13.19, -13.41, -13.41, -9.17, -9.17, -9.17, -9.17, -11.16, -11.16, -11.16, -11.16, -10.96, -11.32, -11.32, -11.32, -11.09, -11.44, -11.17, -11.52, -11.15, -11.14, -11.14, -10.75, -10.75, -10.75, -10.75, -10.75, -9.97, -9.53, -9.82, -9.27, -8.99, -8.4, -8.14, -7.5, -7.5, -7.1, -6.4, -6.4, -5.46, -5.46, -4.66, -3.68, -3.94, -2.92, -2.92, -1.97, -2.13, -1.08, -1.17, 0.0, 0.0, 0.0, 0.0, 1.5, 1.5, 1.5, 2.82, 3.53, 3.53, 3.39, 3.25, 3.25, 3.25, 3.11, 2.97, 4.0, 4.0, 3.8, 3.8, 3.8, 2.69, 2.69, 2.83, 1.47, 1.47, 1.26, 1.33, 1.58, 2.82, 1.76, 2.58, 2.7, 2.7, 2.39, 2.82, 2.95, 3.32, 3.56, 3.93, 4.3, 12.61, -0.0, -11.27, -12.34, -13.28, -13.28, -14.88, -11.7, -13.19, -12.96, -12.96, -9.17, -9.17, -9.17, -11.16, -11.16, -11.16, -11.16, -10.96, -10.96, -10.96, -11.32, -11.09, -11.44, -11.44, -11.52, -11.52, -10.81, -10.81, -10.43, -10.43, -10.43, -10.01, -10.43, -10.43, -9.53, -9.53, -8.99, -8.4, -8.14, -8.14, -7.5, -7.1, -6.4, -6.4, -5.46, -5.46, -4.66, -4.51, -3.68, -3.94, -2.92, -2.92, -1.97, -2.13, -1.08, -1.08, -1.13, 0.0, 0.0, 0.0, 0.0, 0.0, 1.44, 2.82, 3.07, 3.53, 3.39, 2.95, 2.82, 2.82, 2.7, 2.97, 2.97, 4.0, 3.8, 3.8, 2.69, 2.69, 2.69, 1.47, 1.47, 0.0, 0.0, 0.0, 0.0, 1.16, 1.91, 1.33, 1.39, 1.39, 1.22, 2.82, 2.95, 3.19, 3.56, 3.36, 5.18, 7.4, 13.89, -7.63, -10.81, -12.34, -14.22, -13.59, -12.33, -11.38, -12.79, -12.96, -12.96, -12.96, -12.96, -11.16, -11.16, -11.16, -11.16, -10.96, -10.96, -10.96, -11.32, -11.09, -11.44, -11.44, -11.52, -11.52, -10.81, -10.81, -10.43, -10.43, -10.43, -10.01, -10.43, -10.43, -9.53, -9.53, -8.99, -8.4, -8.14, -8.14, -7.5, -7.1, -6.4, -6.4, -5.46, -5.46, -4.66, -4.51, -3.68, -3.94, -2.92, -2.92, -1.97, -2.13, -1.08, -1.08, -1.13, 0.0, 0.0, 0.0, 0.0, 0.0, 1.44, 2.82, 3.07, 3.53, 3.39, 2.95, 2.82, 2.82, 2.7, 2.97, 2.97, 4.0, 3.8, 3.8, 2.69, 2.69, 2.69, 1.47, 1.47, 0.0, 0.0, 0.0, 0.0, 1.16, 1.91, 1.33, 1.39, 1.22, 1.22, 2.82, 2.95, 3.19, 3.44, 3.25, 5.02, 5.65, 7.06, 10.6, -0.0, -9.4, -12.61, -12.07, -10.66, -9.67, -7.0, -9.17, -12.96, -12.96, -12.96]}]